Time,TemperatureF,DewpointF,PressureIn,WindDirection,WindDirectionDegrees,WindSpeedMPH,WindSpeedGustMPH,Humidity,HourlyPrecipIn,Conditions,Clouds,dailyrainin,SolarRadiationWatts/m^2,SoftwareType,DateUTC
2013-03-27 00:02:00,47.1,23.4,30.31,ESE,119,5.0,7.0,39,0.00,,,0.00,0,Wunderground v.1.15,2013-03-27 05:02:00,
2013-03-27 00:03:00,47.1,22.8,30.31,SE,130,6.0,7.0,38,0.00,,,0.00,0,Wunderground v.1.15,2013-03-27 05:03:00,
2013-03-27 00:07:00,46.9,23.2,30.31,ESE,123,6.0,7.0,39,0.00,,,0.00,0,Wunderground v.1.15,2013-03-27 05:07:00,
2013-03-27 00:08:00,46.9,23.2,30.31,ESE,122,5.0,7.0,39,0.00,,,0.00,0,Wunderground v.1.15,2013-03-27 05:08:00,
2013-03-27 00:12:00,46.9,23.2,30.31,ESE,117,6.0,6.0,39,0.00,,,0.00,0,Wunderground v.1.15,2013-03-27 05:12:00,
2013-03-27 00:15:00,46.8,23.1,30.31,ESE,119,6.0,6.0,39,0.00,,,0.00,0,Wunderground v.1.15,2013-03-27 05:15:00,
2013-03-27 00:18:00,46.8,23.1,30.31,ESE,117,6.0,7.0,39,0.00,,,0.00,0,Wunderground v.1.15,2013-03-27 05:18:00,
2013-03-27 00:19:00,46.8,23.1,30.31,ESE,114,6.0,7.0,39,0.00,,,0.00,0,Wunderground v.1.15,2013-03-27 05:19:00,
2013-03-27 00:20:00,46.8,23.1,30.31,ESE,115,6.0,7.0,39,0.00,,,0.00,0,Wunderground v.1.15,2013-03-27 05:20:00,
2013-03-27 00:22:00,46.7,23.0,30.31,SE,128,6.0,7.0,39,0.00,,,0.00,0,Wunderground v.1.15,2013-03-27 05:22:00,
2013-03-27 00:24:00,46.7,23.0,30.30,ESE,118,6.0,7.0,39,0.00,,,0.00,0,Wunderground v.1.15,2013-03-27 05:24:00,
2013-03-27 00:25:00,46.7,23.0,30.30,SE,127,6.0,7.0,39,0.00,,,0.00,0,Wunderground v.1.15,2013-03-27 05:25:00,
2013-03-27 00:28:00,46.8,23.1,30.30,SE,132,6.0,9.0,39,0.00,,,0.00,0,Wunderground v.1.15,2013-03-27 05:28:00,
2013-03-27 00:29:00,46.8,22.5,30.30,ESE,122,6.0,9.0,38,0.00,,,0.00,0,Wunderground v.1.15,2013-03-27 05:29:00,
2013-03-27 00:35:00,46.9,22.6,30.30,SE,137,6.0,11.0,38,0.00,,,0.00,0,Wunderground v.1.15,2013-03-27 05:35:00,
2013-03-27 00:36:00,46.9,22.6,30.30,ESE,123,7.0,11.0,38,0.00,,,0.00,0,Wunderground v.1.15,2013-03-27 05:36:00,
2013-03-27 00:40:00,47.0,22.0,30.30,SE,126,7.0,7.0,37,0.00,,,0.00,0,Wunderground v.1.15,2013-03-27 05:40:00,
2013-03-27 00:41:00,47.0,22.0,30.30,SE,129,7.0,7.0,37,0.00,,,0.00,0,Wunderground v.1.15,2013-03-27 05:41:00,
2013-03-27 00:45:00,46.9,22.0,30.30,ESE,121,7.0,8.0,37,0.00,,,0.00,0,Wunderground v.1.15,2013-03-27 05:45:00,
2013-03-27 00:46:00,46.9,22.0,30.30,ESE,115,7.0,8.0,37,0.00,,,0.00,0,Wunderground v.1.15,2013-03-27 05:46:00,
2013-03-27 00:47:00,46.9,22.0,30.30,ESE,114,6.0,8.0,37,0.00,,,0.00,0,Wunderground v.1.15,2013-03-27 05:47:00,
2013-03-27 00:48:00,46.9,22.0,30.30,SE,125,6.0,8.0,37,0.00,,,0.00,0,Wunderground v.1.15,2013-03-27 05:48:00,
2013-03-27 00:50:00,46.8,21.9,30.30,SE,126,6.0,6.0,37,0.00,,,0.00,0,Wunderground v.1.15,2013-03-27 05:50:00,
2013-03-27 00:51:00,46.8,21.9,30.30,ESE,120,6.0,11.0,37,0.00,,,0.00,0,Wunderground v.1.15,2013-03-27 05:51:00,
2013-03-27 00:53:00,46.8,21.9,30.30,ESE,117,6.0,11.0,37,0.00,,,0.00,0,Wunderground v.1.15,2013-03-27 05:53:00,
2013-03-27 00:57:00,46.8,21.9,30.30,ESE,111,6.0,11.0,37,0.00,,,0.00,0,Wunderground v.1.15,2013-03-27 05:57:00,
2013-03-27 00:59:00,46.7,21.8,30.30,ESE,123,6.0,11.0,37,0.00,,,0.00,0,Wunderground v.1.15,2013-03-27 05:59:00,
2013-03-27 01:01:00,46.7,21.8,30.30,SE,125,6.0,6.0,37,0.00,,,0.00,0,Wunderground v.1.15,2013-03-27 06:01:00,
2013-03-27 01:06:00,46.7,21.1,30.30,SE,136,6.0,8.0,36,0.00,,,0.00,0,Wunderground v.1.15,2013-03-27 06:06:00,
2013-03-27 01:07:00,46.7,21.1,30.30,ESE,123,6.0,9.0,36,0.00,,,0.00,0,Wunderground v.1.15,2013-03-27 06:07:00,
2013-03-27 01:10:00,46.8,21.2,30.30,SE,136,6.0,9.0,36,0.00,,,0.00,0,Wunderground v.1.15,2013-03-27 06:10:00,
2013-03-27 01:13:00,46.8,21.2,30.29,SE,139,6.0,8.0,36,0.00,,,0.00,0,Wunderground v.1.15,2013-03-27 06:13:00,
2013-03-27 01:15:00,46.7,21.1,30.29,ESE,123,6.0,8.0,36,0.00,,,0.00,0,Wunderground v.1.15,2013-03-27 06:15:00,
2013-03-27 01:19:00,46.6,21.0,30.29,SE,125,6.0,8.0,36,0.00,,,0.00,0,Wunderground v.1.15,2013-03-27 06:19:00,
2013-03-27 01:22:00,46.5,21.6,30.29,SE,128,5.0,6.0,37,0.00,,,0.00,0,Wunderground v.1.15,2013-03-27 06:22:00,
2013-03-27 01:23:00,46.5,21.6,30.29,ESE,122,5.0,6.0,37,0.00,,,0.00,0,Wunderground v.1.15,2013-03-27 06:23:00,
2013-03-27 01:24:00,46.4,21.5,30.29,SE,126,5.0,6.0,37,0.00,,,0.00,0,Wunderground v.1.15,2013-03-27 06:24:00,
2013-03-27 01:28:00,46.4,21.5,30.29,SE,133,5.0,7.0,37,0.00,,,0.00,0,Wunderground v.1.15,2013-03-27 06:28:00,
2013-03-27 01:30:00,46.3,21.4,30.29,SE,137,5.0,7.0,37,0.00,,,0.00,0,Wunderground v.1.15,2013-03-27 06:30:00,
2013-03-27 01:32:00,46.4,21.5,30.29,ESE,123,6.0,6.0,37,0.00,,,0.00,0,Wunderground v.1.15,2013-03-27 06:32:00,
2013-03-27 01:34:00,46.3,21.4,30.29,SE,126,6.0,6.0,37,0.00,,,0.00,0,Wunderground v.1.15,2013-03-27 06:34:00,
2013-03-27 01:35:00,46.3,21.4,30.29,SE,127,6.0,6.0,37,0.00,,,0.00,0,Wunderground v.1.15,2013-03-27 06:35:00,
2013-03-27 01:37:00,46.2,21.3,30.29,SE,124,5.0,6.0,37,0.00,,,0.00,0,Wunderground v.1.15,2013-03-27 06:37:00,
2013-03-27 01:38:00,46.1,21.9,30.29,ESE,110,5.0,7.0,38,0.00,,,0.00,0,Wunderground v.1.15,2013-03-27 06:38:00,
2013-03-27 01:40:00,46.1,21.2,30.29,SE,126,5.0,7.0,37,0.00,,,0.00,0,Wunderground v.1.15,2013-03-27 06:40:00,
2013-03-27 01:43:00,46.1,21.9,30.29,SE,127,5.0,5.0,38,0.00,,,0.00,0,Wunderground v.1.15,2013-03-27 06:43:00,
2013-03-27 01:44:00,46.0,21.8,30.29,SE,127,5.0,6.0,38,0.00,,,0.00,0,Wunderground v.1.15,2013-03-27 06:44:00,
2013-03-27 01:45:00,46.0,21.8,30.29,SE,130,5.0,6.0,38,0.00,,,0.00,0,Wunderground v.1.15,2013-03-27 06:45:00,
2013-03-27 01:49:00,45.9,21.7,30.29,ESE,119,5.0,6.0,38,0.00,,,0.00,0,Wunderground v.1.15,2013-03-27 06:49:00,
2013-03-27 01:52:00,45.8,21.6,30.28,SE,128,5.0,7.0,38,0.00,,,0.00,0,Wunderground v.1.15,2013-03-27 06:52:00,
2013-03-27 01:55:00,45.7,21.5,30.28,ESE,122,5.0,7.0,38,0.00,,,0.00,0,Wunderground v.1.15,2013-03-27 06:55:00,
2013-03-27 01:57:00,45.8,21.6,30.29,SE,126,6.0,7.0,38,0.00,,,0.00,0,Wunderground v.1.15,2013-03-27 06:57:00,
2013-03-27 02:01:00,45.7,21.5,30.28,SE,130,6.0,6.0,38,0.00,,,0.00,0,Wunderground v.1.15,2013-03-27 07:01:00,
2013-03-27 02:02:00,45.7,21.5,30.28,ESE,117,6.0,6.0,38,0.00,,,0.00,0,Wunderground v.1.15,2013-03-27 07:02:00,
2013-03-27 02:03:00,45.6,21.4,30.29,ESE,117,5.0,6.0,38,0.00,,,0.00,0,Wunderground v.1.15,2013-03-27 07:03:00,
2013-03-27 02:05:00,45.6,20.8,30.28,SE,126,6.0,6.0,37,0.00,,,0.00,0,Wunderground v.1.15,2013-03-27 07:05:00,
2013-03-27 02:09:00,45.5,21.3,30.28,SE,124,5.0,6.0,38,0.00,,,0.00,0,Wunderground v.1.15,2013-03-27 07:09:00,
2013-03-27 02:10:00,45.5,20.7,30.28,SE,135,6.0,6.0,37,0.00,,,0.00,0,Wunderground v.1.15,2013-03-27 07:10:00,
2013-03-27 02:11:00,45.5,20.7,30.28,SE,125,6.0,6.0,37,0.00,,,0.00,0,Wunderground v.1.15,2013-03-27 07:11:00,
2013-03-27 02:12:00,45.5,20.7,30.28,SE,129,6.0,7.0,37,0.00,,,0.00,0,Wunderground v.1.15,2013-03-27 07:12:00,
2013-03-27 02:14:00,45.4,20.6,30.28,SE,131,6.0,7.0,37,0.00,,,0.00,0,Wunderground v.1.15,2013-03-27 07:14:00,
2013-03-27 02:17:00,45.4,21.2,30.28,SE,126,6.0,8.0,38,0.00,,,0.00,0,Wunderground v.1.15,2013-03-27 07:17:00,
2013-03-27 02:18:00,45.3,21.2,30.28,SE,133,6.0,8.0,38,0.00,,,0.00,0,Wunderground v.1.15,2013-03-27 07:18:00,
2013-03-27 02:22:00,45.3,20.5,30.28,SE,132,6.0,8.0,37,0.00,,,0.00,0,Wunderground v.1.15,2013-03-27 07:22:00,
2013-03-27 02:24:00,45.2,20.4,30.28,SE,133,6.0,8.0,37,0.00,,,0.00,0,Wunderground v.1.15,2013-03-27 07:24:00,
2013-03-27 02:29:00,45.2,20.4,30.28,ESE,123,6.0,8.0,37,0.00,,,0.00,0,Wunderground v.1.15,2013-03-27 07:29:00,
2013-03-27 02:30:00,45.2,20.4,30.28,ESE,120,6.0,9.0,37,0.00,,,0.00,0,Wunderground v.1.15,2013-03-27 07:30:00,
2013-03-27 02:31:00,45.2,20.4,30.28,SSE,149,5.0,5.0,37,0.00,,,0.00,0,Wunderground v.1.15,2013-03-27 07:31:00,
2013-03-27 02:35:00,45.1,20.3,30.28,SE,126,5.0,7.0,37,0.00,,,0.00,0,Wunderground v.1.15,2013-03-27 07:35:00,
2013-03-27 02:37:00,45.0,20.3,30.28,SE,129,5.0,7.0,37,0.00,,,0.00,0,Wunderground v.1.15,2013-03-27 07:37:00,
2013-03-27 02:38:00,45.0,20.3,30.28,SE,135,5.0,7.0,37,0.00,,,0.00,0,Wunderground v.1.15,2013-03-27 07:38:00,
2013-03-27 02:43:00,44.9,20.8,30.28,SE,137,5.0,5.0,38,0.00,,,0.00,0,Wunderground v.1.15,2013-03-27 07:43:00,
2013-03-27 02:44:00,44.9,20.8,30.28,SE,130,5.0,5.0,38,0.00,,,0.00,0,Wunderground v.1.15,2013-03-27 07:44:00,
2013-03-27 02:45:00,44.9,20.8,30.27,SE,126,5.0,5.0,38,0.00,,,0.00,0,Wunderground v.1.15,2013-03-27 07:45:00,
2013-03-27 02:49:00,44.9,20.8,30.28,SE,130,6.0,9.0,38,0.00,,,0.00,0,Wunderground v.1.15,2013-03-27 07:49:00,
2013-03-27 02:51:00,44.9,20.8,30.28,SE,128,6.0,6.0,38,0.00,,,0.00,0,Wunderground v.1.15,2013-03-27 07:51:00,
2013-03-27 02:52:00,44.8,20.7,30.27,SE,130,6.0,6.0,38,0.00,,,0.00,0,Wunderground v.1.15,2013-03-27 07:52:00,
2013-03-27 02:55:00,44.7,20.6,30.27,SE,132,6.0,6.0,38,0.00,,,0.00,0,Wunderground v.1.15,2013-03-27 07:55:00,
2013-03-27 02:59:00,44.6,20.5,30.27,SE,141,5.0,6.0,38,0.00,,,0.00,0,Wunderground v.1.15,2013-03-27 07:59:00,
2013-03-27 03:04:00,44.5,20.4,30.27,SE,142,5.0,6.0,38,0.00,,,0.00,0,Wunderground v.1.15,2013-03-27 08:04:00,
2013-03-27 03:06:00,44.5,20.4,30.27,SE,139,5.0,6.0,38,0.00,,,0.00,0,Wunderground v.1.15,2013-03-27 08:06:00,
2013-03-27 03:10:00,44.6,20.5,30.27,SE,131,6.0,8.0,38,0.00,,,0.00,0,Wunderground v.1.15,2013-03-27 08:10:00,
2013-03-27 03:12:00,44.6,20.5,30.27,SE,134,6.0,7.0,38,0.00,,,0.00,0,Wunderground v.1.15,2013-03-27 08:12:00,
2013-03-27 03:13:00,44.6,20.5,30.27,SE,125,6.0,8.0,38,0.00,,,0.00,0,Wunderground v.1.15,2013-03-27 08:13:00,
2013-03-27 03:19:00,44.7,20.6,30.27,SE,132,6.0,11.0,38,0.00,,,0.00,0,Wunderground v.1.15,2013-03-27 08:19:00,
2013-03-27 03:20:00,44.6,20.5,30.27,ESE,121,6.0,11.0,38,0.00,,,0.00,0,Wunderground v.1.15,2013-03-27 08:20:00,
2013-03-27 03:22:00,44.6,20.5,30.27,SE,132,6.0,7.0,38,0.00,,,0.00,0,Wunderground v.1.15,2013-03-27 08:22:00,
2013-03-27 03:24:00,44.6,20.5,30.26,SE,124,6.0,8.0,38,0.00,,,0.00,0,Wunderground v.1.15,2013-03-27 08:24:00,
2013-03-27 03:26:00,44.7,20.0,30.26,SE,128,6.0,8.0,37,0.00,,,0.00,0,Wunderground v.1.15,2013-03-27 08:26:00,
2013-03-27 03:27:00,44.6,20.5,30.26,SE,146,6.0,8.0,38,0.00,,,0.00,0,Wunderground v.1.15,2013-03-27 08:27:00,
2013-03-27 03:30:00,44.6,20.5,30.26,ESE,122,6.0,9.0,38,0.00,,,0.00,0,Wunderground v.1.15,2013-03-27 08:30:00,
2013-03-27 03:32:00,44.7,20.6,30.26,SE,137,6.0,8.0,38,0.00,,,0.00,0,Wunderground v.1.15,2013-03-27 08:32:00,
2013-03-27 03:35:00,44.6,20.5,30.26,SE,127,6.0,8.0,38,0.00,,,0.00,0,Wunderground v.1.15,2013-03-27 08:35:00,
2013-03-27 03:37:00,44.6,20.5,30.26,SE,126,7.0,8.0,38,0.00,,,0.00,0,Wunderground v.1.15,2013-03-27 08:37:00,
2013-03-27 03:43:00,44.6,20.5,30.26,SE,130,6.0,7.0,38,0.00,,,0.00,0,Wunderground v.1.15,2013-03-27 08:43:00,
2013-03-27 03:49:00,44.8,21.3,30.25,SE,134,7.0,11.0,39,0.00,,,0.00,0,Wunderground v.1.15,2013-03-27 08:49:00,
2013-03-27 03:50:00,44.8,21.3,30.25,SE,131,7.0,11.0,39,0.00,,,0.00,0,Wunderground v.1.15,2013-03-27 08:50:00,
2013-03-27 03:51:00,44.8,21.3,30.25,SE,132,7.0,9.0,39,0.00,,,0.00,0,Wunderground v.1.15,2013-03-27 08:51:00,
2013-03-27 03:55:00,44.8,21.3,30.25,ESE,114,8.0,10.0,39,0.00,,,0.00,0,Wunderground v.1.15,2013-03-27 08:55:00,
2013-03-27 03:56:00,44.7,21.2,30.25,SE,128,8.0,10.0,39,0.00,,,0.00,0,Wunderground v.1.15,2013-03-27 08:56:00,
2013-03-27 03:57:00,44.7,21.2,30.25,SE,138,8.0,10.0,39,0.00,,,0.00,0,Wunderground v.1.15,2013-03-27 08:57:00,
2013-03-27 04:01:00,44.7,21.8,30.25,ESE,114,8.0,8.0,40,0.00,,,0.00,0,Wunderground v.1.15,2013-03-27 09:01:00,
2013-03-27 04:03:00,44.6,21.7,30.25,SE,136,8.0,8.0,40,0.00,,,0.00,0,Wunderground v.1.15,2013-03-27 09:03:00,
2013-03-27 04:04:00,44.6,21.7,30.25,SE,128,8.0,9.0,40,0.00,,,0.00,0,Wunderground v.1.15,2013-03-27 09:04:00,
2013-03-27 04:08:00,44.7,21.8,30.25,SE,134,8.0,11.0,40,0.00,,,0.00,0,Wunderground v.1.15,2013-03-27 09:08:00,
2013-03-27 04:09:00,44.7,21.8,30.25,SSE,156,8.0,11.0,40,0.00,,,0.00,0,Wunderground v.1.15,2013-03-27 09:09:00,
2013-03-27 04:13:00,44.8,21.9,30.25,SE,144,7.0,8.0,40,0.00,,,0.00,0,Wunderground v.1.15,2013-03-27 09:13:00,
2013-03-27 04:15:00,44.9,22.0,30.25,SE,130,7.0,10.0,40,0.00,,,0.00,0,Wunderground v.1.15,2013-03-27 09:15:00,
2013-03-27 04:18:00,44.9,22.0,30.25,SE,128,7.0,10.0,40,0.00,,,0.00,0,Wunderground v.1.15,2013-03-27 09:18:00,
2013-03-27 04:19:00,44.9,22.0,30.24,SE,141,7.0,10.0,40,0.00,,,0.00,0,Wunderground v.1.15,2013-03-27 09:19:00,
2013-03-27 04:20:00,44.9,22.0,30.25,SE,139,7.0,10.0,40,0.00,,,0.00,0,Wunderground v.1.15,2013-03-27 09:20:00,
2013-03-27 04:25:00,45.0,22.1,30.25,ESE,121,7.0,10.0,40,0.00,,,0.00,0,Wunderground v.1.15,2013-03-27 09:25:00,
2013-03-27 04:27:00,45.0,22.1,30.25,SE,128,7.0,10.0,40,0.00,,,0.00,0,Wunderground v.1.15,2013-03-27 09:27:00,
2013-03-27 04:28:00,45.0,22.1,30.25,ESE,123,7.0,10.0,40,0.00,,,0.00,0,Wunderground v.1.15,2013-03-27 09:28:00,
2013-03-27 04:29:00,45.0,22.1,30.25,SE,133,8.0,10.0,40,0.00,,,0.00,0,Wunderground v.1.15,2013-03-27 09:29:00,
2013-03-27 04:34:00,44.9,22.0,30.25,SE,130,7.0,11.0,40,0.00,,,0.00,0,Wunderground v.1.15,2013-03-27 09:34:00,
2013-03-27 04:35:00,44.8,21.9,30.25,SE,142,7.0,11.0,40,0.00,,,0.00,0,Wunderground v.1.15,2013-03-27 09:35:00,
2013-03-27 04:37:00,44.8,21.9,30.25,SE,124,7.0,11.0,40,0.00,,,0.00,0,Wunderground v.1.15,2013-03-27 09:37:00,
2013-03-27 04:41:00,44.8,21.9,30.25,SE,137,7.0,8.0,40,0.00,,,0.00,0,Wunderground v.1.15,2013-03-27 09:41:00,
2013-03-27 04:42:00,44.8,21.9,30.25,SE,126,7.0,8.0,40,0.00,,,0.00,0,Wunderground v.1.15,2013-03-27 09:42:00,
2013-03-27 04:43:00,44.8,21.9,30.25,SE,132,7.0,8.0,40,0.00,,,0.00,0,Wunderground v.1.15,2013-03-27 09:43:00,
2013-03-27 04:44:00,44.7,21.8,30.25,SSE,147,7.0,8.0,40,0.00,,,0.00,0,Wunderground v.1.15,2013-03-27 09:44:00,
2013-03-27 04:48:00,44.6,21.7,30.25,SE,138,6.0,8.0,40,0.00,,,0.00,0,Wunderground v.1.15,2013-03-27 09:48:00,
2013-03-27 04:49:00,44.6,21.7,30.25,SE,128,6.0,8.0,40,0.00,,,0.00,0,Wunderground v.1.15,2013-03-27 09:49:00,
2013-03-27 04:50:00,44.6,21.7,30.25,SE,143,6.0,8.0,40,0.00,,,0.00,0,Wunderground v.1.15,2013-03-27 09:50:00,
2013-03-27 04:51:00,44.5,21.6,30.25,SE,142,6.0,6.0,40,0.00,,,0.00,0,Wunderground v.1.15,2013-03-27 09:51:00,
2013-03-27 04:53:00,44.5,21.6,30.25,SE,137,7.0,9.0,40,0.00,,,0.00,0,Wunderground v.1.15,2013-03-27 09:53:00,
2013-03-27 04:56:00,44.5,21.6,30.25,SE,143,6.0,9.0,40,0.00,,,0.00,0,Wunderground v.1.15,2013-03-27 09:56:00,
2013-03-27 04:57:00,44.5,21.6,30.25,SE,134,6.0,9.0,40,0.00,,,0.00,0,Wunderground v.1.15,2013-03-27 09:57:00,
2013-03-27 04:58:00,44.4,21.6,30.25,SE,124,6.0,9.0,40,0.00,,,0.00,0,Wunderground v.1.15,2013-03-27 09:58:00,
2013-03-27 05:02:00,44.2,22.0,30.25,SE,138,6.0,7.0,41,0.00,,,0.00,0,Wunderground v.1.15,2013-03-27 10:02:00,
2013-03-27 05:03:00,44.2,22.0,30.25,SSE,148,6.0,7.0,41,0.00,,,0.00,0,Wunderground v.1.15,2013-03-27 10:03:00,
2013-03-27 05:05:00,44.0,21.8,30.25,SE,145,6.0,9.0,41,0.00,,,0.00,0,Wunderground v.1.15,2013-03-27 10:05:00,
2013-03-27 05:06:00,44.0,21.8,30.25,SE,143,6.0,9.0,41,0.00,,,0.00,0,Wunderground v.1.15,2013-03-27 10:06:00,
2013-03-27 05:07:00,44.0,21.8,30.25,SE,139,6.0,9.0,41,0.00,,,0.00,0,Wunderground v.1.15,2013-03-27 10:07:00,
2013-03-27 05:10:00,43.9,22.3,30.25,SE,135,5.0,9.0,42,0.00,,,0.00,0,Wunderground v.1.15,2013-03-27 10:10:00,
2013-03-27 05:11:00,43.9,22.3,30.25,SE,137,5.0,5.0,42,0.00,,,0.00,0,Wunderground v.1.15,2013-03-27 10:11:00,
2013-03-27 05:14:00,43.8,22.2,30.26,SSE,147,5.0,7.0,42,0.00,,,0.00,0,Wunderground v.1.15,2013-03-27 10:14:00,
2013-03-27 05:15:00,43.7,22.1,30.26,SSE,150,5.0,7.0,42,0.00,,,0.00,0,Wunderground v.1.15,2013-03-27 10:15:00,
2013-03-27 05:20:00,43.5,22.5,30.26,SSE,153,4.0,7.0,43,0.00,,,0.00,0,Wunderground v.1.15,2013-03-27 10:20:00,
2013-03-27 05:22:00,43.4,22.4,30.26,SSE,165,5.0,7.0,43,0.00,,,0.00,0,Wunderground v.1.15,2013-03-27 10:22:00,
2013-03-27 05:25:00,43.2,22.7,30.26,SSE,150,4.0,7.0,44,0.00,,,0.00,0,Wunderground v.1.15,2013-03-27 10:25:00,
2013-03-27 05:27:00,43.1,22.6,30.26,SSE,153,5.0,7.0,44,0.00,,,0.00,0,Wunderground v.1.15,2013-03-27 10:27:00,
2013-03-27 05:28:00,43.1,22.6,30.26,SSE,160,5.0,7.0,44,0.00,,,0.00,0,Wunderground v.1.15,2013-03-27 10:28:00,
2013-03-27 05:32:00,42.8,22.9,30.26,SE,142,4.0,6.0,45,0.00,,,0.00,0,Wunderground v.1.15,2013-03-27 10:32:00,
2013-03-27 05:33:00,42.8,22.9,30.26,SE,141,4.0,6.0,45,0.00,,,0.00,0,Wunderground v.1.15,2013-03-27 10:33:00,
2013-03-27 05:34:00,42.7,22.8,30.26,SSE,157,4.0,8.0,45,0.00,,,0.00,0,Wunderground v.1.15,2013-03-27 10:34:00,
2013-03-27 05:37:00,42.6,22.7,30.26,SSE,161,4.0,8.0,45,0.00,,,0.00,0,Wunderground v.1.15,2013-03-27 10:37:00,
2013-03-27 05:38:00,42.6,22.7,30.26,SSE,155,5.0,8.0,45,0.00,,,0.00,0,Wunderground v.1.15,2013-03-27 10:38:00,
2013-03-27 05:39:00,42.6,22.7,30.26,SE,143,5.0,8.0,45,0.00,,,0.00,0,Wunderground v.1.15,2013-03-27 10:39:00,
2013-03-27 05:42:00,42.4,22.5,30.26,SSE,150,4.0,4.0,45,0.00,,,0.00,0,Wunderground v.1.15,2013-03-27 10:42:00,
2013-03-27 05:43:00,42.4,22.5,30.26,SSE,150,4.0,4.0,45,0.00,,,0.00,0,Wunderground v.1.15,2013-03-27 10:43:00,
2013-03-27 05:45:00,42.3,23.0,30.26,SE,146,4.0,8.0,46,0.00,,,0.00,0,Wunderground v.1.15,2013-03-27 10:45:00,
2013-03-27 05:48:00,42.3,23.0,30.26,SSE,153,4.0,8.0,46,0.00,,,0.00,0,Wunderground v.1.15,2013-03-27 10:48:00,
2013-03-27 05:49:00,42.3,23.0,30.26,SSE,150,4.0,8.0,46,0.00,,,0.00,0,Wunderground v.1.15,2013-03-27 10:49:00,
2013-03-27 05:51:00,42.2,22.9,30.26,SE,140,5.0,9.0,46,0.00,,,0.00,0,Wunderground v.1.15,2013-03-27 10:51:00,
2013-03-27 05:52:00,42.2,22.9,30.26,SE,142,5.0,9.0,46,0.00,,,0.00,0,Wunderground v.1.15,2013-03-27 10:52:00,
2013-03-27 05:54:00,42.2,22.9,30.26,SSE,165,5.0,9.0,46,0.00,,,0.00,0,Wunderground v.1.15,2013-03-27 10:54:00,
2013-03-27 05:57:00,42.1,23.3,30.27,SSE,166,4.0,9.0,47,0.00,,,0.00,0,Wunderground v.1.15,2013-03-27 10:57:00,
2013-03-27 05:58:00,42.1,23.3,30.27,SSE,149,5.0,9.0,47,0.00,,,0.00,0,Wunderground v.1.15,2013-03-27 10:58:00,
2013-03-27 06:03:00,42.0,23.2,30.27,SE,136,4.0,6.0,47,0.00,,,0.00,0,Wunderground v.1.15,2013-03-27 11:03:00,
2013-03-27 06:05:00,41.9,23.6,30.27,SE,136,4.0,6.0,48,0.00,,,0.00,0,Wunderground v.1.15,2013-03-27 11:05:00,
2013-03-27 06:10:00,41.8,23.5,30.27,SSE,164,4.0,6.0,48,0.00,,,0.00,0,Wunderground v.1.15,2013-03-27 11:10:00,
2013-03-27 06:13:00,41.8,23.5,30.27,SSE,162,4.0,5.0,48,0.00,,,0.00,0,Wunderground v.1.15,2013-03-27 11:13:00,
2013-03-27 06:16:00,41.8,23.5,30.27,SSE,153,3.0,6.0,48,0.00,,,0.00,0,Wunderground v.1.15,2013-03-27 11:16:00,
2013-03-27 06:17:00,41.8,23.5,30.27,SSE,151,3.0,9.0,48,0.00,,,0.00,0,Wunderground v.1.15,2013-03-27 11:17:00,
2013-03-27 06:18:00,41.8,23.5,30.27,SSE,150,3.0,9.0,48,0.00,,,0.00,0,Wunderground v.1.15,2013-03-27 11:18:00,
2013-03-27 06:22:00,41.8,23.5,30.27,SSE,157,4.0,4.0,48,0.00,,,0.00,0,Wunderground v.1.15,2013-03-27 11:22:00,
2013-03-27 06:23:00,41.8,23.5,30.27,SSE,157,4.0,4.0,48,0.00,,,0.00,0,Wunderground v.1.15,2013-03-27 11:23:00,
2013-03-27 06:26:00,41.8,23.5,30.27,SSE,154,4.0,5.0,48,0.00,,,0.00,0,Wunderground v.1.15,2013-03-27 11:26:00,
2013-03-27 06:28:00,41.8,23.5,30.27,SSE,153,4.0,5.0,48,0.00,,,0.00,0,Wunderground v.1.15,2013-03-27 11:28:00,
2013-03-27 06:29:00,41.8,23.5,30.27,SSE,153,4.0,5.0,48,0.00,,,0.00,0,Wunderground v.1.15,2013-03-27 11:29:00,
2013-03-27 06:30:00,41.8,23.5,30.27,SE,138,4.0,5.0,48,0.00,,,0.00,0,Wunderground v.1.15,2013-03-27 11:30:00,
2013-03-27 06:34:00,41.8,23.5,30.27,SE,138,4.0,7.0,48,0.00,,,0.00,0,Wunderground v.1.15,2013-03-27 11:34:00,
2013-03-27 06:35:00,41.8,23.5,30.27,SSE,150,4.0,7.0,48,0.00,,,0.00,0,Wunderground v.1.15,2013-03-27 11:35:00,
2013-03-27 06:39:00,41.8,23.5,30.27,SE,137,5.0,7.0,48,0.00,,,0.00,0,Wunderground v.1.15,2013-03-27 11:39:00,
2013-03-27 06:41:00,41.8,23.5,30.27,SE,141,5.0,7.0,48,0.00,,,0.00,0,Wunderground v.1.15,2013-03-27 11:41:00,
2013-03-27 06:42:00,41.9,23.1,30.27,SE,146,5.0,7.0,47,0.00,,,0.00,0,Wunderground v.1.15,2013-03-27 11:42:00,
2013-03-27 06:44:00,42.0,23.2,30.27,SE,139,5.0,8.0,47,0.00,,,0.00,0,Wunderground v.1.15,2013-03-27 11:44:00,
2013-03-27 06:48:00,42.0,23.2,30.28,SE,140,5.0,8.0,47,0.00,,,0.00,0,Wunderground v.1.15,2013-03-27 11:48:00,
2013-03-27 06:49:00,42.0,23.2,30.28,SSE,153,5.0,8.0,47,0.00,,,0.00,0,Wunderground v.1.15,2013-03-27 11:49:00,
2013-03-27 06:50:00,42.1,23.3,30.28,SE,146,5.0,8.0,47,0.00,,,0.00,0,Wunderground v.1.15,2013-03-27 11:50:00,
2013-03-27 06:53:00,42.1,23.3,30.28,SSE,149,5.0,6.0,47,0.00,,,0.00,0,Wunderground v.1.15,2013-03-27 11:53:00,
2013-03-27 06:54:00,42.1,23.3,30.28,SSE,151,5.0,6.0,47,0.00,,,0.00,0,Wunderground v.1.15,2013-03-27 11:54:00,
2013-03-27 06:59:00,42.1,23.3,30.28,SSE,150,4.0,6.0,47,0.00,,,0.00,0,Wunderground v.1.15,2013-03-27 11:59:00,
2013-03-27 07:02:00,42.1,23.3,30.29,SSE,157,4.0,4.0,47,0.00,,,0.00,0,Wunderground v.1.15,2013-03-27 12:02:00,
2013-03-27 07:03:00,42.0,23.2,30.29,SSE,157,3.0,4.0,47,0.00,,,0.00,0,Wunderground v.1.15,2013-03-27 12:03:00,
2013-03-27 07:09:00,41.9,23.1,30.29,SSE,157,3.0,4.0,47,0.00,,,0.00,0,Wunderground v.1.15,2013-03-27 12:09:00,
2013-03-27 07:12:00,41.8,23.5,30.29,SSE,163,2.0,2.0,48,0.00,,,0.00,0,Wunderground v.1.15,2013-03-27 12:12:00,
2013-03-27 07:13:00,41.8,23.5,30.29,SSE,166,1.0,2.0,48,0.00,,,0.00,0,Wunderground v.1.15,2013-03-27 12:13:00,
2013-03-27 07:15:00,41.8,23.5,30.29,SSE,166,1.0,2.0,48,0.00,,,0.00,0,Wunderground v.1.15,2013-03-27 12:15:00,
2013-03-27 07:17:00,41.7,23.4,30.29,SSE,166,0.0,2.0,48,0.00,,,0.00,0,Wunderground v.1.15,2013-03-27 12:17:00,
2013-03-27 07:19:00,41.6,23.8,30.29,SSE,166,0.0,2.0,49,0.00,,,0.00,0,Wunderground v.1.15,2013-03-27 12:19:00,
2013-03-27 07:20:00,41.6,23.8,30.29,SSE,166,0.0,3.0,49,0.00,,,0.00,5,Wunderground v.1.15,2013-03-27 12:20:00,
2013-03-27 07:23:00,41.5,23.7,30.29,SSE,166,1.0,3.0,49,0.00,,,0.00,5,Wunderground v.1.15,2013-03-27 12:23:00,
2013-03-27 07:26:00,41.5,23.7,30.29,SSE,162,1.0,5.0,49,0.00,,,0.00,9,Wunderground v.1.15,2013-03-27 12:26:00,
2013-03-27 07:28:00,41.6,23.8,30.29,SSE,162,2.0,5.0,49,0.00,,,0.00,9,Wunderground v.1.15,2013-03-27 12:28:00,
2013-03-27 07:34:00,41.5,23.7,30.29,SSE,147,3.0,5.0,49,0.00,,,0.00,14,Wunderground v.1.15,2013-03-27 12:34:00,
2013-03-27 07:35:00,41.5,23.7,30.29,SE,139,3.0,5.0,49,0.00,,,0.00,16,Wunderground v.1.15,2013-03-27 12:35:00,
2013-03-27 07:37:00,41.5,23.7,30.29,SE,140,3.0,5.0,49,0.00,,,0.00,18,Wunderground v.1.15,2013-03-27 12:37:00,
2013-03-27 07:41:00,41.7,23.4,30.29,SE,142,4.0,4.0,48,0.00,,,0.00,21,Wunderground v.1.15,2013-03-27 12:41:00,
2013-03-27 07:42:00,41.7,23.4,30.29,SE,138,5.0,6.0,48,0.00,,,0.00,23,Wunderground v.1.15,2013-03-27 12:42:00,
2013-03-27 07:43:00,41.8,23.5,30.29,SE,135,5.0,6.0,48,0.00,,,0.00,23,Wunderground v.1.15,2013-03-27 12:43:00,
2013-03-27 07:44:00,41.8,23.5,30.29,SE,143,5.0,6.0,48,0.00,,,0.00,25,Wunderground v.1.15,2013-03-27 12:44:00,
2013-03-27 07:47:00,42.0,23.2,30.29,SE,136,5.0,6.0,47,0.00,,,0.00,30,Wunderground v.1.15,2013-03-27 12:47:00,
2013-03-27 07:52:00,42.2,23.4,30.29,SE,134,6.0,6.0,47,0.00,,,0.00,39,Wunderground v.1.15,2013-03-27 12:52:00,
2013-03-27 07:53:00,42.2,23.4,30.29,SE,142,6.0,6.0,47,0.00,,,0.00,40,Wunderground v.1.15,2013-03-27 12:53:00,
2013-03-27 07:54:00,42.3,23.5,30.29,SE,146,6.0,7.0,47,0.00,,,0.00,44,Wunderground v.1.15,2013-03-27 12:54:00,
2013-03-27 07:56:00,42.3,23.5,30.29,SSE,148,6.0,9.0,47,0.00,,,0.00,47,Wunderground v.1.15,2013-03-27 12:56:00,
2013-03-27 07:57:00,42.4,23.6,30.29,SE,142,6.0,9.0,47,0.00,,,0.00,49,Wunderground v.1.15,2013-03-27 12:57:00,
2013-03-27 07:59:00,42.4,23.6,30.29,SE,137,6.0,9.0,47,0.00,,,0.00,54,Wunderground v.1.15,2013-03-27 12:59:00,
2013-03-27 08:00:00,42.4,23.6,30.29,SSE,148,6.0,6.0,47,0.00,,,0.00,62,Wunderground v.1.15,2013-03-27 13:00:00,
2013-03-27 08:05:00,42.7,23.8,30.29,SSE,147,6.0,8.0,47,0.00,,,0.00,74,Wunderground v.1.15,2013-03-27 13:05:00,
2013-03-27 08:07:00,42.7,23.8,30.29,SE,138,6.0,8.0,47,0.00,,,0.00,79,Wunderground v.1.15,2013-03-27 13:07:00,
2013-03-27 08:08:00,42.8,23.9,30.29,South,169,6.0,8.0,47,0.00,,,0.00,81,Wunderground v.1.15,2013-03-27 13:08:00,
2013-03-27 08:12:00,43.1,23.7,30.30,SE,145,6.0,6.0,46,0.00,,,0.00,97,Wunderground v.1.15,2013-03-27 13:12:00,
2013-03-27 08:13:00,43.1,24.2,30.30,SSE,161,6.0,6.0,47,0.00,,,0.00,98,Wunderground v.1.15,2013-03-27 13:13:00,
2013-03-27 08:18:00,43.5,24.1,30.30,SSE,158,5.0,7.0,46,0.00,,,0.00,116,Wunderground v.1.15,2013-03-27 13:18:00,
2013-03-27 08:22:00,43.7,24.2,30.30,SSE,168,5.0,7.0,46,0.00,,,0.00,132,Wunderground v.1.15,2013-03-27 13:22:00,
2013-03-27 08:23:00,43.8,24.3,30.30,SE,138,5.0,8.0,46,0.00,,,0.00,134,Wunderground v.1.15,2013-03-27 13:23:00,
2013-03-27 08:24:00,43.9,24.4,30.30,SE,136,6.0,8.0,46,0.00,,,0.00,137,Wunderground v.1.15,2013-03-27 13:24:00,
2013-03-27 08:26:00,44.0,24.0,30.30,SE,130,6.0,8.0,45,0.00,,,0.00,142,Wunderground v.1.15,2013-03-27 13:26:00,
2013-03-27 08:31:00,44.4,24.4,30.29,SE,142,6.0,7.0,45,0.00,,,0.00,158,Wunderground v.1.15,2013-03-27 13:31:00,
2013-03-27 08:32:00,44.5,24.5,30.29,SSE,148,7.0,7.0,45,0.00,,,0.00,162,Wunderground v.1.15,2013-03-27 13:32:00,
2013-03-27 08:33:00,44.5,23.9,30.29,SSE,149,7.0,8.0,44,0.00,,,0.00,163,Wunderground v.1.15,2013-03-27 13:33:00,
2013-03-27 08:38:00,44.8,24.2,30.29,SSE,147,7.0,8.0,44,0.00,,,0.00,181,Wunderground v.1.15,2013-03-27 13:38:00,
2013-03-27 08:39:00,44.8,24.7,30.29,SE,140,7.0,8.0,45,0.00,,,0.00,188,Wunderground v.1.15,2013-03-27 13:39:00,
2013-03-27 08:41:00,44.9,24.3,30.29,SE,146,7.0,8.0,44,0.00,,,0.00,193,Wunderground v.1.15,2013-03-27 13:41:00,
2013-03-27 08:45:00,45.2,24.6,30.28,SE,136,7.0,9.0,44,0.00,,,0.00,207,Wunderground v.1.15,2013-03-27 13:45:00,
2013-03-27 08:47:00,45.3,24.6,30.29,SE,131,8.0,9.0,44,0.00,,,0.00,213,Wunderground v.1.15,2013-03-27 13:47:00,
2013-03-27 08:48:00,45.4,24.7,30.29,SSE,157,7.0,11.0,44,0.00,,,0.00,216,Wunderground v.1.15,2013-03-27 13:48:00,
2013-03-27 08:50:00,45.5,24.8,30.29,South,172,7.0,7.0,44,0.00,,,0.00,225,Wunderground v.1.15,2013-03-27 13:50:00,
2013-03-27 08:53:00,45.7,25.0,30.29,SE,133,7.0,9.0,44,0.00,,,0.00,234,Wunderground v.1.15,2013-03-27 13:53:00,
2013-03-27 08:55:00,45.9,25.2,30.29,SSE,155,7.0,9.0,44,0.00,,,0.00,243,Wunderground v.1.15,2013-03-27 13:55:00,
2013-03-27 08:58:00,46.2,25.5,30.29,SE,142,6.0,9.0,44,0.00,,,0.00,251,Wunderground v.1.15,2013-03-27 13:58:00,
2013-03-27 09:02:00,46.7,25.9,30.29,SE,136,6.0,9.0,44,0.00,,,0.00,264,Wunderground v.1.15,2013-03-27 14:02:00,
2013-03-27 09:04:00,46.9,26.1,30.29,South,189,6.0,9.0,44,0.00,,,0.00,272,Wunderground v.1.15,2013-03-27 14:04:00,
2013-03-27 09:06:00,47.0,26.2,30.29,SSE,153,6.0,9.0,44,0.00,,,0.00,279,Wunderground v.1.15,2013-03-27 14:06:00,
2013-03-27 09:11:00,47.5,26.6,30.29,South,180,6.0,7.0,44,0.00,,,0.00,297,Wunderground v.1.15,2013-03-27 14:11:00,
2013-03-27 09:12:00,47.5,26.1,30.30,South,173,6.0,7.0,43,0.00,,,0.00,301,Wunderground v.1.15,2013-03-27 14:12:00,
2013-03-27 09:13:00,47.6,26.7,30.30,SE,145,6.0,12.0,44,0.00,,,0.00,302,Wunderground v.1.15,2013-03-27 14:13:00,
2013-03-27 09:18:00,47.9,27.0,30.30,South,171,6.0,12.0,44,0.00,,,0.00,322,Wunderground v.1.15,2013-03-27 14:18:00,
2013-03-27 09:20:00,48.1,27.2,30.30,SSE,153,6.0,6.0,44,0.00,,,0.00,330,Wunderground v.1.15,2013-03-27 14:20:00,
2013-03-27 09:22:00,48.2,27.3,30.30,SE,137,6.0,6.0,44,0.00,,,0.00,336,Wunderground v.1.15,2013-03-27 14:22:00,
2013-03-27 09:23:00,48.3,27.4,30.30,SE,135,6.0,8.0,44,0.00,,,0.00,341,Wunderground v.1.15,2013-03-27 14:23:00,
2013-03-27 09:24:00,48.5,27.6,30.30,SSE,151,6.0,9.0,44,0.00,,,0.00,343,Wunderground v.1.15,2013-03-27 14:24:00,
2013-03-27 09:27:00,48.7,27.7,30.30,SSE,153,7.0,11.0,44,0.00,,,0.00,353,Wunderground v.1.15,2013-03-27 14:27:00,
2013-03-27 09:29:00,48.9,28.5,30.30,SE,140,7.0,11.0,45,0.00,,,0.00,360,Wunderground v.1.15,2013-03-27 14:29:00,
2013-03-27 09:31:00,49.1,28.1,30.30,SSW,199,7.0,7.0,44,0.00,,,0.00,367,Wunderground v.1.15,2013-03-27 14:31:00,
2013-03-27 09:35:00,49.6,28.6,30.30,SSE,158,6.0,9.0,44,0.00,,,0.00,385,Wunderground v.1.15,2013-03-27 14:35:00,
2013-03-27 09:37:00,49.7,28.6,30.30,SSE,150,6.0,9.0,44,0.00,,,0.00,388,Wunderground v.1.15,2013-03-27 14:37:00,
2013-03-27 09:40:00,49.9,28.8,30.30,SE,146,6.0,10.0,44,0.00,,,0.00,401,Wunderground v.1.15,2013-03-27 14:40:00,
2013-03-27 09:41:00,49.9,28.8,30.30,SSE,155,6.0,10.0,44,0.00,,,0.00,403,Wunderground v.1.15,2013-03-27 14:41:00,
2013-03-27 09:42:00,49.9,28.3,30.30,SE,136,6.0,10.0,43,0.00,,,0.00,406,Wunderground v.1.15,2013-03-27 14:42:00,
2013-03-27 09:44:00,50.0,28.9,30.30,South,187,7.0,10.0,44,0.00,,,0.00,417,Wunderground v.1.15,2013-03-27 14:44:00,
2013-03-27 09:47:00,50.2,29.1,30.30,SE,146,7.0,10.0,44,0.00,,,0.00,424,Wunderground v.1.15,2013-03-27 14:47:00,
2013-03-27 09:49:00,50.4,29.3,30.30,SSE,155,6.0,10.0,44,0.00,,,0.00,429,Wunderground v.1.15,2013-03-27 14:49:00,
2013-03-27 09:50:00,50.5,29.4,30.30,SSE,153,6.0,6.0,44,0.00,,,0.00,436,Wunderground v.1.15,2013-03-27 14:50:00,
2013-03-27 09:54:00,50.9,29.2,30.30,South,171,6.0,8.0,43,0.00,,,0.00,448,Wunderground v.1.15,2013-03-27 14:54:00,
2013-03-27 09:55:00,51.0,29.3,30.31,SSE,153,6.0,8.0,43,0.00,,,0.00,454,Wunderground v.1.15,2013-03-27 14:55:00,
2013-03-27 09:57:00,51.3,30.1,30.30,SSE,149,6.0,9.0,44,0.00,,,0.00,459,Wunderground v.1.15,2013-03-27 14:57:00,
2013-03-27 09:58:00,51.4,30.2,30.30,SSE,157,6.0,11.0,44,0.00,,,0.00,464,Wunderground v.1.15,2013-03-27 14:58:00,
2013-03-27 10:02:00,51.7,29.9,30.30,SSE,161,6.0,10.0,43,0.00,,,0.00,476,Wunderground v.1.15,2013-03-27 15:02:00,
2013-03-27 10:03:00,51.7,29.3,30.30,South,169,6.0,10.0,42,0.00,,,0.00,480,Wunderground v.1.15,2013-03-27 15:03:00,
2013-03-27 10:04:00,51.7,29.3,30.30,SE,140,6.0,10.0,42,0.00,,,0.00,483,Wunderground v.1.15,2013-03-27 15:04:00,
2013-03-27 10:08:00,51.5,29.1,30.30,SSE,159,7.0,13.0,42,0.00,,,0.00,494,Wunderground v.1.15,2013-03-27 15:08:00,
2013-03-27 10:09:00,51.6,29.8,30.30,SW,218,7.0,13.0,43,0.00,,,0.00,501,Wunderground v.1.15,2013-03-27 15:09:00,
2013-03-27 10:14:00,51.9,30.1,30.30,SSE,162,8.0,9.0,43,0.00,,,0.00,513,Wunderground v.1.15,2013-03-27 15:14:00,
2013-03-27 10:15:00,52.0,29.6,30.29,SSE,161,8.0,9.0,42,0.00,,,0.00,519,Wunderground v.1.15,2013-03-27 15:15:00,
2013-03-27 10:16:00,52.0,29.6,30.30,South,173,8.0,9.0,42,0.00,,,0.00,522,Wunderground v.1.15,2013-03-27 15:16:00,
2013-03-27 10:17:00,52.1,29.7,30.30,WSW,239,7.0,9.0,42,0.00,,,0.00,524,Wunderground v.1.15,2013-03-27 15:17:00,
2013-03-27 10:20:00,52.4,30.0,30.29,SSE,160,7.0,12.0,42,0.00,,,0.00,534,Wunderground v.1.15,2013-03-27 15:20:00,
2013-03-27 10:21:00,52.5,30.0,30.29,SSE,157,8.0,10.0,42,0.00,,,0.00,538,Wunderground v.1.15,2013-03-27 15:21:00,
2013-03-27 10:22:00,52.5,30.0,30.29,SSE,160,8.0,10.0,42,0.00,,,0.00,541,Wunderground v.1.15,2013-03-27 15:22:00,
2013-03-27 10:23:00,52.5,30.0,30.29,SSE,165,8.0,10.0,42,0.00,,,0.00,543,Wunderground v.1.15,2013-03-27 15:23:00,
2013-03-27 10:29:00,53.1,30.6,30.28,South,185,8.0,10.0,42,0.00,,,0.00,563,Wunderground v.1.15,2013-03-27 15:29:00,
2013-03-27 10:31:00,53.6,31.0,30.28,SSE,157,7.0,7.0,42,0.00,,,0.00,571,Wunderground v.1.15,2013-03-27 15:31:00,
2013-03-27 10:32:00,53.7,31.1,30.28,SSE,148,7.0,11.0,42,0.00,,,0.00,571,Wunderground v.1.15,2013-03-27 15:32:00,
2013-03-27 10:34:00,53.8,30.6,30.28,SE,144,7.0,11.0,41,0.00,,,0.00,577,Wunderground v.1.15,2013-03-27 15:34:00,
2013-03-27 10:37:00,53.9,30.7,30.28,SSE,148,7.0,13.0,41,0.00,,,0.00,587,Wunderground v.1.15,2013-03-27 15:37:00,
2013-03-27 10:39:00,54.1,31.5,30.28,SSE,153,8.0,13.0,42,0.00,,,0.00,594,Wunderground v.1.15,2013-03-27 15:39:00,
2013-03-27 10:40:00,54.2,31.0,30.28,SE,134,8.0,13.0,41,0.00,,,0.00,598,Wunderground v.1.15,2013-03-27 15:40:00,
2013-03-27 10:42:00,54.5,31.9,30.28,SSE,156,9.0,14.0,42,0.00,,,0.00,603,Wunderground v.1.15,2013-03-27 15:42:00,
2013-03-27 10:43:00,54.6,31.3,30.28,SSE,166,8.0,14.0,41,0.00,,,0.00,603,Wunderground v.1.15,2013-03-27 15:43:00,
2013-03-27 10:45:00,55.1,31.8,30.28,SSE,159,7.0,14.0,41,0.00,,,0.00,615,Wunderground v.1.15,2013-03-27 15:45:00,
2013-03-27 10:47:00,55.5,31.5,30.28,SE,144,6.0,14.0,40,0.00,,,0.00,615,Wunderground v.1.15,2013-03-27 15:47:00,
2013-03-27 10:48:00,55.6,31.6,30.28,SE,134,6.0,14.0,40,0.00,,,0.00,617,Wunderground v.1.15,2013-03-27 15:48:00,
2013-03-27 10:51:00,55.7,31.7,30.28,SSE,159,6.0,11.0,40,0.00,,,0.00,628,Wunderground v.1.15,2013-03-27 15:51:00,
2013-03-27 10:53:00,55.8,31.2,30.28,SSE,161,6.0,11.0,39,0.00,,,0.00,631,Wunderground v.1.15,2013-03-27 15:53:00,
2013-03-27 10:55:00,56.2,31.5,30.28,WSW,240,7.0,11.0,39,0.00,,,0.00,640,Wunderground v.1.15,2013-03-27 15:55:00,
2013-03-27 10:56:00,56.2,31.5,30.28,South,182,7.0,11.0,39,0.00,,,0.00,642,Wunderground v.1.15,2013-03-27 15:56:00,
2013-03-27 10:57:00,56.4,31.7,30.28,SSE,160,7.0,11.0,39,0.00,,,0.00,643,Wunderground v.1.15,2013-03-27 15:57:00,
2013-03-27 10:59:00,56.6,31.3,30.28,SSE,162,7.0,11.0,38,0.00,,,0.00,649,Wunderground v.1.15,2013-03-27 15:59:00,
2013-03-27 11:01:00,56.7,32.0,30.28,SE,142,7.0,7.0,39,0.00,,,0.00,656,Wunderground v.1.15,2013-03-27 16:01:00,
2013-03-27 11:02:00,56.9,32.2,30.28,SE,145,6.0,14.0,39,0.00,,,0.00,657,Wunderground v.1.15,2013-03-27 16:02:00,
2013-03-27 11:05:00,56.7,31.4,30.28,WSW,238,8.0,14.0,38,0.00,,,0.00,666,Wunderground v.1.15,2013-03-27 16:05:00,
2013-03-27 11:08:00,57.0,31.6,30.28,SE,146,8.0,14.0,38,0.00,,,0.00,673,Wunderground v.1.15,2013-03-27 16:08:00,
2013-03-27 11:09:00,57.2,31.1,30.28,SSE,160,8.0,14.0,37,0.00,,,0.00,677,Wunderground v.1.15,2013-03-27 16:09:00,
2013-03-27 11:10:00,57.3,31.2,30.28,SE,139,8.0,14.0,37,0.00,,,0.00,680,Wunderground v.1.15,2013-03-27 16:10:00,
2013-03-27 11:13:00,57.5,31.4,30.28,South,175,8.0,10.0,37,0.00,,,0.00,687,Wunderground v.1.15,2013-03-27 16:13:00,
2013-03-27 11:15:00,57.7,31.6,30.28,SE,139,7.0,10.0,37,0.00,,,0.00,693,Wunderground v.1.15,2013-03-27 16:15:00,
2013-03-27 11:18:00,58.0,31.2,30.28,SSE,161,8.0,10.0,36,0.00,,,0.00,698,Wunderground v.1.15,2013-03-27 16:18:00,
2013-03-27 11:19:00,58.0,31.2,30.28,SSE,156,8.0,10.0,36,0.00,,,0.00,700,Wunderground v.1.15,2013-03-27 16:19:00,
2013-03-27 11:23:00,58.1,30.6,30.27,WSW,254,7.0,9.0,35,0.00,,,0.00,710,Wunderground v.1.15,2013-03-27 16:23:00,
2013-03-27 11:25:00,58.5,30.9,30.27,SSW,192,7.0,9.0,35,0.00,,,0.00,715,Wunderground v.1.15,2013-03-27 16:25:00,
2013-03-27 11:27:00,58.6,31.0,30.27,SSE,163,7.0,9.0,35,0.00,,,0.00,722,Wunderground v.1.15,2013-03-27 16:27:00,
2013-03-27 11:28:00,58.7,31.1,30.27,SW,225,6.0,9.0,35,0.00,,,0.00,722,Wunderground v.1.15,2013-03-27 16:28:00,
2013-03-27 11:30:00,58.9,31.3,30.27,SSE,155,6.0,11.0,35,0.00,,,0.00,726,Wunderground v.1.15,2013-03-27 16:30:00,
2013-03-27 11:32:00,58.9,31.3,30.27,ESE,121,6.0,13.0,35,0.00,,,0.00,728,Wunderground v.1.15,2013-03-27 16:32:00,
2013-03-27 11:34:00,58.7,31.1,30.27,SSE,148,7.0,13.0,35,0.00,,,0.00,731,Wunderground v.1.15,2013-03-27 16:34:00,
2013-03-27 11:36:00,58.9,31.3,30.27,South,184,7.0,13.0,35,0.00,,,0.00,737,Wunderground v.1.15,2013-03-27 16:36:00,
2013-03-27 11:37:00,59.0,30.6,30.27,South,184,7.0,13.0,34,0.00,,,0.00,742,Wunderground v.1.15,2013-03-27 16:37:00,
2013-03-27 11:38:00,59.2,30.8,30.27,SE,145,7.0,13.0,34,0.00,,,0.00,745,Wunderground v.1.15,2013-03-27 16:38:00,
2013-03-27 11:42:00,59.5,30.3,30.27,ESE,121,7.0,11.0,33,0.00,,,0.00,752,Wunderground v.1.15,2013-03-27 16:42:00,
2013-03-27 11:43:00,59.5,30.3,30.27,SW,215,7.0,11.0,33,0.00,,,0.00,754,Wunderground v.1.15,2013-03-27 16:43:00,
2013-03-27 11:44:00,59.6,29.7,30.27,SSW,195,6.0,11.0,32,0.00,,,0.00,759,Wunderground v.1.15,2013-03-27 16:44:00,
2013-03-27 11:45:00,59.7,29.8,30.27,SSE,158,7.0,12.0,32,0.00,,,0.00,761,Wunderground v.1.15,2013-03-27 16:45:00,
2013-03-27 11:47:00,59.6,29.7,30.27,SSW,207,7.0,12.0,32,0.00,,,0.00,763,Wunderground v.1.15,2013-03-27 16:47:00,
2013-03-27 11:49:00,59.8,29.9,30.27,SE,134,8.0,12.0,32,0.00,,,0.00,765,Wunderground v.1.15,2013-03-27 16:49:00,
2013-03-27 11:50:00,59.8,29.9,30.27,SSE,153,8.0,12.0,32,0.00,,,0.00,770,Wunderground v.1.15,2013-03-27 16:50:00,
2013-03-27 11:55:00,60.3,29.5,30.26,South,180,8.0,14.0,31,0.00,,,0.00,780,Wunderground v.1.15,2013-03-27 16:55:00,
2013-03-27 11:57:00,60.6,29.8,30.26,SE,140,8.0,14.0,31,0.00,,,0.00,782,Wunderground v.1.15,2013-03-27 16:57:00,
2013-03-27 11:58:00,60.7,29.1,30.26,SSE,149,8.0,14.0,30,0.00,,,0.00,786,Wunderground v.1.15,2013-03-27 16:58:00,
2013-03-27 12:03:00,60.7,28.2,30.26,West,272,7.0,9.0,29,0.00,,,0.00,795,Wunderground v.1.15,2013-03-27 17:03:00,
2013-03-27 12:04:00,60.8,29.1,30.26,South,190,7.0,9.0,30,0.00,,,0.00,795,Wunderground v.1.15,2013-03-27 17:04:00,
2013-03-27 12:08:00,61.1,28.6,30.26,South,188,7.0,11.0,29,0.00,,,0.00,802,Wunderground v.1.15,2013-03-27 17:08:00,
2013-03-27 12:12:00,61.3,28.7,30.25,SE,139,7.0,14.0,29,0.00,,,0.00,810,Wunderground v.1.15,2013-03-27 17:12:00,
2013-03-27 12:13:00,61.3,28.7,30.25,SSE,149,7.0,14.0,29,0.00,,,0.00,809,Wunderground v.1.15,2013-03-27 17:13:00,
2013-03-27 12:17:00,61.1,28.6,30.25,SSE,166,9.0,14.0,29,0.00,,,0.00,817,Wunderground v.1.15,2013-03-27 17:17:00,
2013-03-27 12:18:00,61.1,28.6,30.25,South,169,9.0,14.0,29,0.00,,,0.00,819,Wunderground v.1.15,2013-03-27 17:18:00,
2013-03-27 12:23:00,61.4,29.7,30.25,South,172,8.0,10.0,30,0.00,,,0.00,826,Wunderground v.1.15,2013-03-27 17:23:00,
2013-03-27 12:25:00,61.8,30.0,30.25,SE,145,7.0,10.0,30,0.00,,,0.00,828,Wunderground v.1.15,2013-03-27 17:25:00,
2013-03-27 12:28:00,62.1,30.3,30.25,South,175,6.0,10.0,30,0.00,,,0.00,830,Wunderground v.1.15,2013-03-27 17:28:00,
2013-03-27 12:30:00,62.2,29.5,30.25,South,170,6.0,10.0,29,0.00,,,0.00,835,Wunderground v.1.15,2013-03-27 17:30:00,
2013-03-27 12:34:00,62.3,30.4,30.25,WSW,252,6.0,9.0,30,0.00,,,0.00,838,Wunderground v.1.15,2013-03-27 17:34:00,
2013-03-27 12:35:00,62.5,29.8,30.25,SSE,158,6.0,9.0,29,0.00,,,0.00,838,Wunderground v.1.15,2013-03-27 17:35:00,
2013-03-27 12:37:00,62.7,30.8,30.25,SSE,163,6.0,9.0,30,0.00,,,0.00,842,Wunderground v.1.15,2013-03-27 17:37:00,
2013-03-27 12:40:00,63.0,31.0,30.25,SSE,155,6.0,9.0,30,0.00,,,0.00,847,Wunderground v.1.15,2013-03-27 17:40:00,
2013-03-27 12:42:00,63.0,31.0,30.24,SSE,160,6.0,9.0,30,0.00,,,0.00,851,Wunderground v.1.15,2013-03-27 17:42:00,
2013-03-27 12:43:00,63.0,31.9,30.24,South,169,6.0,9.0,31,0.00,,,0.00,851,Wunderground v.1.15,2013-03-27 17:43:00,
2013-03-27 12:44:00,63.0,31.9,30.24,SE,146,6.0,9.0,31,0.00,,,0.00,853,Wunderground v.1.15,2013-03-27 17:44:00,
2013-03-27 12:46:00,62.7,30.8,30.24,SSE,149,8.0,19.0,30,0.00,,,0.00,853,Wunderground v.1.15,2013-03-27 17:46:00,
2013-03-27 12:50:00,62.5,30.6,30.24,SE,124,9.0,19.0,30,0.00,,,0.00,860,Wunderground v.1.15,2013-03-27 17:50:00,
2013-03-27 12:52:00,62.8,30.9,30.24,South,189,9.0,12.0,30,0.00,,,0.00,860,Wunderground v.1.15,2013-03-27 17:52:00,
2013-03-27 12:56:00,63.1,31.1,30.24,SSE,166,8.0,12.0,30,0.00,,,0.00,863,Wunderground v.1.15,2013-03-27 17:56:00,
2013-03-27 12:57:00,63.0,30.2,30.24,SE,144,8.0,12.0,29,0.00,,,0.00,861,Wunderground v.1.15,2013-03-27 17:57:00,
2013-03-27 13:00:00,62.9,31.0,30.24,SSE,168,9.0,17.0,30,0.00,,,0.00,868,Wunderground v.1.15,2013-03-27 18:00:00,
2013-03-27 13:01:00,62.9,30.1,30.24,SE,140,9.0,17.0,29,0.00,,,0.00,868,Wunderground v.1.15,2013-03-27 18:01:00,
2013-03-27 13:02:00,62.9,31.0,30.24,West,269,9.0,17.0,30,0.00,,,0.00,868,Wunderground v.1.15,2013-03-27 18:02:00,
2013-03-27 13:03:00,63.1,31.1,30.24,SE,142,9.0,17.0,30,0.00,,,0.00,870,Wunderground v.1.15,2013-03-27 18:03:00,
2013-03-27 13:07:00,63.0,30.2,30.23,SSE,149,9.0,17.0,29,0.00,,,0.00,868,Wunderground v.1.15,2013-03-27 18:07:00,
2013-03-27 13:09:00,63.0,30.2,30.23,SSE,155,10.0,17.0,29,0.00,,,0.00,872,Wunderground v.1.15,2013-03-27 18:09:00,
2013-03-27 13:10:00,63.1,30.3,30.23,SE,136,10.0,10.0,29,0.00,,,0.00,872,Wunderground v.1.15,2013-03-27 18:10:00,
2013-03-27 13:11:00,63.2,30.4,30.23,SE,131,10.0,13.0,29,0.00,,,0.00,870,Wunderground v.1.15,2013-03-27 18:11:00,
2013-03-27 13:13:00,63.4,30.6,30.23,SE,141,10.0,13.0,29,0.00,,,0.00,877,Wunderground v.1.15,2013-03-27 18:13:00,
2013-03-27 13:16:00,63.9,31.0,30.23,SE,142,9.0,13.0,29,0.00,,,0.00,881,Wunderground v.1.15,2013-03-27 18:16:00,
2013-03-27 13:17:00,64.0,30.2,30.23,SSE,163,8.0,13.0,28,0.00,,,0.00,879,Wunderground v.1.15,2013-03-27 18:17:00,
2013-03-27 13:18:00,64.2,30.4,30.22,SE,139,9.0,15.0,28,0.00,,,0.00,877,Wunderground v.1.15,2013-03-27 18:18:00,
2013-03-27 13:20:00,64.1,30.3,30.22,South,183,8.0,15.0,28,0.00,,,0.00,886,Wunderground v.1.15,2013-03-27 18:20:00,
2013-03-27 13:22:00,64.3,30.5,30.22,South,185,8.0,15.0,28,0.00,,,0.00,882,Wunderground v.1.15,2013-03-27 18:22:00,
2013-03-27 13:23:00,64.3,29.6,30.22,SE,132,8.0,15.0,27,0.00,,,0.00,884,Wunderground v.1.15,2013-03-27 18:23:00,
2013-03-27 13:24:00,64.3,29.6,30.22,South,169,8.0,15.0,27,0.00,,,0.00,882,Wunderground v.1.15,2013-03-27 18:24:00,
2013-03-27 13:26:00,64.3,30.5,30.22,SSE,154,9.0,15.0,28,0.00,,,0.00,886,Wunderground v.1.15,2013-03-27 18:26:00,
2013-03-27 13:29:00,64.6,30.7,30.22,SSE,164,8.0,15.0,28,0.00,,,0.00,865,Wunderground v.1.15,2013-03-27 18:29:00,
2013-03-27 13:31:00,64.7,30.8,30.22,SE,133,8.0,13.0,28,0.00,,,0.00,884,Wunderground v.1.15,2013-03-27 18:31:00,
2013-03-27 13:33:00,64.8,30.9,30.21,SSE,148,9.0,13.0,28,0.00,,,0.00,884,Wunderground v.1.15,2013-03-27 18:33:00,
2013-03-27 13:34:00,64.8,30.9,30.21,SE,142,9.0,15.0,28,0.00,,,0.00,888,Wunderground v.1.15,2013-03-27 18:34:00,
2013-03-27 13:35:00,64.7,30.8,30.21,SE,142,9.0,15.0,28,0.00,,,0.00,884,Wunderground v.1.15,2013-03-27 18:35:00,
2013-03-27 13:37:00,64.4,29.7,30.21,SE,143,11.0,15.0,27,0.00,,,0.00,882,Wunderground v.1.15,2013-03-27 18:37:00,
2013-03-27 13:40:00,64.6,31.6,30.21,SSE,161,11.0,11.0,29,0.00,,,0.00,886,Wunderground v.1.15,2013-03-27 18:40:00,
2013-03-27 13:42:00,64.9,31.0,30.21,SE,133,11.0,20.0,28,0.00,,,0.00,886,Wunderground v.1.15,2013-03-27 18:42:00,
2013-03-27 13:44:00,64.7,30.8,30.21,SSE,148,12.0,20.0,28,0.00,,,0.00,882,Wunderground v.1.15,2013-03-27 18:44:00,
2013-03-27 13:45:00,64.6,31.6,30.21,SSW,199,12.0,20.0,29,0.00,,,0.00,886,Wunderground v.1.15,2013-03-27 18:45:00,
2013-03-27 13:47:00,64.7,30.8,30.20,SSE,161,11.0,20.0,28,0.00,,,0.00,884,Wunderground v.1.15,2013-03-27 18:47:00,
2013-03-27 13:50:00,65.1,32.0,30.20,South,173,11.0,11.0,29,0.00,,,0.00,886,Wunderground v.1.15,2013-03-27 18:50:00,
2013-03-27 13:52:00,65.3,32.2,30.20,WSW,255,10.0,11.0,29,0.00,,,0.00,882,Wunderground v.1.15,2013-03-27 18:52:00,
2013-03-27 13:53:00,65.4,32.3,30.20,South,175,9.0,11.0,29,0.00,,,0.00,882,Wunderground v.1.15,2013-03-27 18:53:00,
2013-03-27 13:54:00,65.6,32.5,30.20,SSE,163,9.0,11.0,29,0.00,,,0.00,882,Wunderground v.1.15,2013-03-27 18:54:00,
2013-03-27 13:55:00,65.9,33.6,30.20,SSE,164,8.0,16.0,30,0.00,,,0.00,882,Wunderground v.1.15,2013-03-27 18:55:00,
2013-03-27 14:00:00,65.3,32.2,30.20,SSE,162,10.0,12.0,29,0.00,,,0.00,884,Wunderground v.1.15,2013-03-27 19:00:00,
2013-03-27 14:02:00,65.1,32.0,30.20,SSE,150,11.0,13.0,29,0.00,,,0.00,882,Wunderground v.1.15,2013-03-27 19:02:00,
2013-03-27 14:05:00,65.4,33.1,30.20,WSW,241,11.0,13.0,30,0.00,,,0.00,884,Wunderground v.1.15,2013-03-27 19:05:00,
2013-03-27 14:08:00,65.9,32.7,30.19,WSW,252,10.0,13.0,29,0.00,,,0.00,877,Wunderground v.1.15,2013-03-27 19:08:00,
2013-03-27 14:12:00,66.0,32.8,30.19,South,170,8.0,19.0,29,0.00,,,0.00,877,Wunderground v.1.15,2013-03-27 19:12:00,
2013-03-27 14:13:00,66.0,32.8,30.19,SSE,154,9.0,19.0,29,0.00,,,0.00,875,Wunderground v.1.15,2013-03-27 19:13:00,
2013-03-27 14:14:00,65.9,32.7,30.19,SSE,148,9.0,19.0,29,0.00,,,0.00,874,Wunderground v.1.15,2013-03-27 19:14:00,
2013-03-27 14:17:00,66.2,33.0,30.19,SE,140,9.0,19.0,29,0.00,,,0.00,874,Wunderground v.1.15,2013-03-27 19:17:00,
2013-03-27 14:19:00,66.3,33.1,30.19,SE,136,10.0,19.0,29,0.00,,,0.00,872,Wunderground v.1.15,2013-03-27 19:19:00,
2013-03-27 14:20:00,66.4,33.2,30.18,South,170,10.0,10.0,29,0.00,,,0.00,872,Wunderground v.1.15,2013-03-27 19:20:00,
2013-03-27 14:24:00,66.4,33.2,30.18,SE,132,9.0,11.0,29,0.00,,,0.00,868,Wunderground v.1.15,2013-03-27 19:24:00,
2013-03-27 14:25:00,66.4,34.0,30.18,SSE,153,9.0,17.0,30,0.00,,,0.00,865,Wunderground v.1.15,2013-03-27 19:25:00,
2013-03-27 14:28:00,66.5,34.1,30.18,SSW,196,10.0,17.0,30,0.00,,,0.00,865,Wunderground v.1.15,2013-03-27 19:28:00,
2013-03-27 14:31:00,66.5,34.1,30.18,SE,126,10.0,10.0,30,0.00,,,0.00,861,Wunderground v.1.15,2013-03-27 19:31:00,
2013-03-27 14:32:00,66.6,34.2,30.18,SE,139,10.0,14.0,30,0.00,,,0.00,860,Wunderground v.1.15,2013-03-27 19:32:00,
2013-03-27 14:33:00,66.6,33.3,30.17,SE,130,11.0,15.0,29,0.00,,,0.00,858,Wunderground v.1.15,2013-03-27 19:33:00,
2013-03-27 14:34:00,66.5,34.1,30.17,South,169,11.0,16.0,30,0.00,,,0.00,858,Wunderground v.1.15,2013-03-27 19:34:00,
2013-03-27 14:36:00,66.4,34.0,30.17,SSE,154,12.0,16.0,30,0.00,,,0.00,858,Wunderground v.1.15,2013-03-27 19:36:00,
2013-03-27 14:38:00,66.4,34.0,30.17,SSE,147,12.0,16.0,30,0.00,,,0.00,854,Wunderground v.1.15,2013-03-27 19:38:00,
2013-03-27 14:39:00,66.3,33.9,30.18,South,182,12.0,16.0,30,0.00,,,0.00,854,Wunderground v.1.15,2013-03-27 19:39:00,
2013-03-27 14:40:00,66.2,33.8,30.18,SSE,158,12.0,12.0,30,0.00,,,0.00,854,Wunderground v.1.15,2013-03-27 19:40:00,
2013-03-27 14:44:00,66.7,34.3,30.17,West,274,9.0,12.0,30,0.00,,,0.00,849,Wunderground v.1.15,2013-03-27 19:44:00,
2013-03-27 14:45:00,67.2,34.7,30.17,SE,130,8.0,12.0,30,0.00,,,0.00,846,Wunderground v.1.15,2013-03-27 19:45:00,
2013-03-27 14:47:00,67.4,34.9,30.17,ESE,111,7.0,17.0,30,0.00,,,0.00,842,Wunderground v.1.15,2013-03-27 19:47:00,
2013-03-27 14:49:00,67.2,34.7,30.17,SE,141,8.0,17.0,30,0.00,,,0.00,840,Wunderground v.1.15,2013-03-27 19:49:00,
2013-03-27 14:50:00,67.1,34.6,30.17,SSE,153,8.0,16.0,30,0.00,,,0.00,838,Wunderground v.1.15,2013-03-27 19:50:00,
2013-03-27 14:53:00,67.2,35.5,30.17,SE,142,9.0,16.0,31,0.00,,,0.00,838,Wunderground v.1.15,2013-03-27 19:53:00,
2013-03-27 14:54:00,67.2,34.7,30.17,SE,141,9.0,16.0,30,0.00,,,0.00,837,Wunderground v.1.15,2013-03-27 19:54:00,
2013-03-27 14:57:00,67.1,34.6,30.16,SSE,157,10.0,16.0,30,0.00,,,0.00,833,Wunderground v.1.15,2013-03-27 19:57:00,
2013-03-27 15:01:00,67.3,35.6,30.16,ESE,116,10.0,10.0,31,0.00,,,0.00,824,Wunderground v.1.15,2013-03-27 20:01:00,
2013-03-27 15:02:00,67.4,35.7,30.16,SE,134,9.0,10.0,31,0.00,,,0.00,824,Wunderground v.1.15,2013-03-27 20:02:00,
2013-03-27 15:04:00,67.4,35.7,30.16,SSE,166,9.0,12.0,31,0.00,,,0.00,821,Wunderground v.1.15,2013-03-27 20:04:00,
2013-03-27 15:07:00,67.1,35.4,30.15,SE,137,10.0,15.0,31,0.00,,,0.00,816,Wunderground v.1.15,2013-03-27 20:07:00,
2013-03-27 15:08:00,67.0,35.3,30.15,SSE,156,10.0,15.0,31,0.00,,,0.00,812,Wunderground v.1.15,2013-03-27 20:08:00,
2013-03-27 15:09:00,67.0,35.3,30.15,SE,145,11.0,15.0,31,0.00,,,0.00,816,Wunderground v.1.15,2013-03-27 20:09:00,
2013-03-27 15:14:00,67.7,36.0,30.15,SSW,207,10.0,11.0,31,0.00,,,0.00,810,Wunderground v.1.15,2013-03-27 20:14:00,
2013-03-27 15:15:00,67.9,36.1,30.15,SSE,163,9.0,11.0,31,0.00,,,0.00,800,Wunderground v.1.15,2013-03-27 20:15:00,
2013-03-27 15:16:00,68.0,36.2,30.15,South,186,9.0,11.0,31,0.00,,,0.00,800,Wunderground v.1.15,2013-03-27 20:16:00,
2013-03-27 15:20:00,67.9,35.3,30.15,SE,142,8.0,11.0,30,0.00,,,0.00,798,Wunderground v.1.15,2013-03-27 20:20:00,
2013-03-27 15:22:00,67.7,36.0,30.14,SSE,151,8.0,12.0,31,0.00,,,0.00,795,Wunderground v.1.15,2013-03-27 20:22:00,
2013-03-27 15:24:00,67.7,36.0,30.14,SE,136,9.0,14.0,31,0.00,,,0.00,795,Wunderground v.1.15,2013-03-27 20:24:00,
2013-03-27 15:28:00,67.6,35.9,30.14,SE,125,11.0,14.0,31,0.00,,,0.00,782,Wunderground v.1.15,2013-03-27 20:28:00,
2013-03-27 15:29:00,67.6,35.0,30.14,SE,143,10.0,14.0,30,0.00,,,0.00,780,Wunderground v.1.15,2013-03-27 20:29:00,
2013-03-27 15:33:00,67.5,36.6,30.14,South,175,10.0,11.0,32,0.00,,,0.00,777,Wunderground v.1.15,2013-03-27 20:33:00,
2013-03-27 15:34:00,67.6,35.9,30.14,SSE,151,10.0,11.0,31,0.00,,,0.00,777,Wunderground v.1.15,2013-03-27 20:34:00,
2013-03-27 15:35:00,67.8,36.0,30.14,SE,137,10.0,11.0,31,0.00,,,0.00,773,Wunderground v.1.15,2013-03-27 20:35:00,
2013-03-27 15:38:00,67.9,35.3,30.14,SE,138,10.0,15.0,30,0.00,,,0.00,768,Wunderground v.1.15,2013-03-27 20:38:00,
2013-03-27 15:43:00,67.7,36.0,30.13,SE,145,10.0,18.0,31,0.00,,,0.00,754,Wunderground v.1.15,2013-03-27 20:43:00,
2013-03-27 15:44:00,67.7,36.0,30.13,SE,140,10.0,18.0,31,0.00,,,0.00,751,Wunderground v.1.15,2013-03-27 20:44:00,
2013-03-27 15:45:00,67.6,35.9,30.13,SE,142,11.0,18.0,31,0.00,,,0.00,749,Wunderground v.1.15,2013-03-27 20:45:00,
2013-03-27 15:49:00,67.5,35.8,30.13,SE,145,11.0,19.0,31,0.00,,,0.00,742,Wunderground v.1.15,2013-03-27 20:49:00,
2013-03-27 15:51:00,67.6,35.9,30.13,SE,142,10.0,10.0,31,0.00,,,0.00,735,Wunderground v.1.15,2013-03-27 20:51:00,
2013-03-27 15:52:00,67.8,36.8,30.13,SSE,162,10.0,10.0,32,0.00,,,0.00,737,Wunderground v.1.15,2013-03-27 20:52:00,
2013-03-27 15:55:00,68.3,36.5,30.13,West,266,9.0,11.0,31,0.00,,,0.00,724,Wunderground v.1.15,2013-03-27 20:55:00,
2013-03-27 15:58:00,68.6,36.7,30.13,SE,145,7.0,11.0,31,0.00,,,0.00,717,Wunderground v.1.15,2013-03-27 20:58:00,
2013-03-27 16:03:00,69.1,37.2,30.13,West,281,6.0,7.0,31,0.00,,,0.00,705,Wunderground v.1.15,2013-03-27 21:03:00,
2013-03-27 16:04:00,69.0,37.1,30.12,WNW,284,6.0,7.0,31,0.00,,,0.00,703,Wunderground v.1.15,2013-03-27 21:04:00,
2013-03-27 16:05:00,69.0,36.3,30.12,WSW,237,6.0,8.0,30,0.00,,,0.00,694,Wunderground v.1.15,2013-03-27 21:05:00,
2013-03-27 16:07:00,68.9,36.2,30.12,WSW,250,7.0,8.0,30,0.00,,,0.00,698,Wunderground v.1.15,2013-03-27 21:07:00,
2013-03-27 16:11:00,69.0,36.3,30.12,SSE,152,7.0,11.0,30,0.00,,,0.00,684,Wunderground v.1.15,2013-03-27 21:11:00,
2013-03-27 16:12:00,68.9,36.2,30.11,SSE,148,8.0,11.0,30,0.00,,,0.00,684,Wunderground v.1.15,2013-03-27 21:12:00,
2013-03-27 16:15:00,68.8,36.9,30.11,WNW,287,8.0,11.0,31,0.00,,,0.00,675,Wunderground v.1.15,2013-03-27 21:15:00,
2013-03-27 16:18:00,68.7,36.8,30.11,SSE,153,8.0,11.0,31,0.00,,,0.00,668,Wunderground v.1.15,2013-03-27 21:18:00,
2013-03-27 16:21:00,68.1,37.1,30.11,SSE,165,9.0,10.0,32,0.00,,,0.00,657,Wunderground v.1.15,2013-03-27 21:21:00,
2013-03-27 16:23:00,68.0,37.0,30.11,SSE,156,9.0,11.0,32,0.00,,,0.00,656,Wunderground v.1.15,2013-03-27 21:23:00,
2013-03-27 16:25:00,68.4,37.4,30.11,SE,140,9.0,11.0,32,0.00,,,0.00,645,Wunderground v.1.15,2013-03-27 21:25:00,
2013-03-27 16:27:00,68.5,37.5,30.11,South,185,9.0,18.0,32,0.00,,,0.00,645,Wunderground v.1.15,2013-03-27 21:27:00,
2013-03-27 16:28:00,68.5,37.5,30.11,South,174,9.0,18.0,32,0.00,,,0.00,642,Wunderground v.1.15,2013-03-27 21:28:00,
2013-03-27 16:29:00,68.5,37.5,30.11,South,184,9.0,18.0,32,0.00,,,0.00,638,Wunderground v.1.15,2013-03-27 21:29:00,
2013-03-27 16:33:00,68.2,37.2,30.10,SSE,156,9.0,15.0,32,0.00,,,0.00,635,Wunderground v.1.15,2013-03-27 21:33:00,
2013-03-27 16:35:00,68.3,37.3,30.11,SSE,159,10.0,15.0,32,0.00,,,0.00,622,Wunderground v.1.15,2013-03-27 21:35:00,
2013-03-27 16:38:00,68.4,37.4,30.10,SSE,162,10.0,15.0,32,0.00,,,0.00,615,Wunderground v.1.15,2013-03-27 21:38:00,
2013-03-27 16:40:00,68.5,37.5,30.10,SSW,212,9.0,15.0,32,0.00,,,0.00,606,Wunderground v.1.15,2013-03-27 21:40:00,
2013-03-27 16:43:00,68.7,37.6,30.10,SSE,153,7.0,15.0,32,0.00,,,0.00,601,Wunderground v.1.15,2013-03-27 21:43:00,
2013-03-27 16:44:00,68.8,37.7,30.10,SSE,158,7.0,15.0,32,0.00,,,0.00,598,Wunderground v.1.15,2013-03-27 21:44:00,
2013-03-27 16:45:00,68.8,37.7,30.10,SW,229,7.0,15.0,32,0.00,,,0.00,591,Wunderground v.1.15,2013-03-27 21:45:00,
2013-03-27 16:48:00,68.8,37.7,30.10,SW,216,6.0,15.0,32,0.00,,,0.00,584,Wunderground v.1.15,2013-03-27 21:48:00,
2013-03-27 16:49:00,68.8,37.7,30.10,SSE,163,6.0,15.0,32,0.00,,,0.00,584,Wunderground v.1.15,2013-03-27 21:49:00,
2013-03-27 16:51:00,68.7,37.6,30.09,SSE,151,6.0,6.0,32,0.00,,,0.00,571,Wunderground v.1.15,2013-03-27 21:51:00,
2013-03-27 16:52:00,68.8,37.7,30.10,SSE,167,7.0,11.0,32,0.00,,,0.00,571,Wunderground v.1.15,2013-03-27 21:52:00,
2013-03-27 16:57:00,68.9,37.8,30.10,South,173,7.0,11.0,32,0.00,,,0.00,554,Wunderground v.1.15,2013-03-27 21:57:00,
2013-03-27 16:58:00,69.0,37.9,30.10,West,269,7.0,11.0,32,0.00,,,0.00,548,Wunderground v.1.15,2013-03-27 21:58:00,
2013-03-27 16:59:00,69.0,37.9,30.10,WSW,253,7.0,11.0,32,0.00,,,0.00,547,Wunderground v.1.15,2013-03-27 21:59:00,
2013-03-27 17:03:00,68.8,37.7,30.10,SSE,148,7.0,14.0,32,0.00,,,0.00,533,Wunderground v.1.15,2013-03-27 22:03:00,
2013-03-27 17:05:00,68.4,37.4,30.09,SE,142,7.0,14.0,32,0.00,,,0.00,533,Wunderground v.1.15,2013-03-27 22:05:00,
2013-03-27 17:07:00,68.3,37.3,30.09,SE,143,8.0,14.0,32,0.00,,,0.00,524,Wunderground v.1.15,2013-03-27 22:07:00,
2013-03-27 17:09:00,68.2,38.0,30.09,SE,136,9.0,17.0,33,0.00,,,0.00,517,Wunderground v.1.15,2013-03-27 22:09:00,
2013-03-27 17:10:00,68.1,37.9,30.09,SSE,167,10.0,17.0,33,0.00,,,0.00,512,Wunderground v.1.15,2013-03-27 22:10:00,
2013-03-27 17:15:00,68.3,38.1,30.09,South,169,10.0,11.0,33,0.00,,,0.00,487,Wunderground v.1.15,2013-03-27 22:15:00,
2013-03-27 17:17:00,68.5,38.2,30.09,WSW,240,10.0,11.0,33,0.00,,,0.00,489,Wunderground v.1.15,2013-03-27 22:17:00,
2013-03-27 17:18:00,68.5,38.2,30.09,South,187,9.0,11.0,33,0.00,,,0.00,485,Wunderground v.1.15,2013-03-27 22:18:00,
2013-03-27 17:19:00,68.6,38.3,30.09,SE,144,9.0,11.0,33,0.00,,,0.00,482,Wunderground v.1.15,2013-03-27 22:19:00,
2013-03-27 17:22:00,69.0,37.9,30.09,WNW,292,6.0,9.0,32,0.00,,,0.00,473,Wunderground v.1.15,2013-03-27 22:22:00,
2013-03-27 17:24:00,69.1,38.0,30.09,South,184,6.0,9.0,32,0.00,,,0.00,466,Wunderground v.1.15,2013-03-27 22:24:00,
2013-03-27 17:25:00,69.0,37.9,30.09,South,178,6.0,17.0,32,0.00,,,0.00,459,Wunderground v.1.15,2013-03-27 22:25:00,
2013-03-27 17:27:00,68.7,37.6,30.09,SSE,153,7.0,17.0,32,0.00,,,0.00,457,Wunderground v.1.15,2013-03-27 22:27:00,
2013-03-27 17:28:00,68.5,37.5,30.09,SSE,167,7.0,17.0,32,0.00,,,0.00,452,Wunderground v.1.15,2013-03-27 22:28:00,
2013-03-27 17:30:00,68.3,37.3,30.09,South,171,8.0,17.0,32,0.00,,,0.00,441,Wunderground v.1.15,2013-03-27 22:30:00,
2013-03-27 17:33:00,68.0,37.8,30.09,SE,139,10.0,19.0,33,0.00,,,0.00,432,Wunderground v.1.15,2013-03-27 22:33:00,
2013-03-27 17:34:00,67.9,37.7,30.09,South,190,11.0,19.0,33,0.00,,,0.00,427,Wunderground v.1.15,2013-03-27 22:34:00,
2013-03-27 17:35:00,67.9,37.7,30.09,South,180,11.0,19.0,33,0.00,,,0.00,424,Wunderground v.1.15,2013-03-27 22:35:00,
2013-03-27 17:40:00,68.1,37.9,30.09,South,173,10.0,19.0,33,0.00,,,0.00,408,Wunderground v.1.15,2013-03-27 22:40:00,
2013-03-27 17:42:00,68.0,37.8,30.09,SE,144,11.0,14.0,33,0.00,,,0.00,401,Wunderground v.1.15,2013-03-27 22:42:00,
2013-03-27 17:45:00,68.1,37.9,30.09,SW,218,9.0,14.0,33,0.00,,,0.00,387,Wunderground v.1.15,2013-03-27 22:45:00,
2013-03-27 17:48:00,68.1,37.9,30.09,South,184,9.0,14.0,33,0.00,,,0.00,378,Wunderground v.1.15,2013-03-27 22:48:00,
2013-03-27 17:52:00,68.1,37.9,30.09,SSE,165,8.0,17.0,33,0.00,,,0.00,364,Wunderground v.1.15,2013-03-27 22:52:00,
2013-03-27 17:53:00,68.0,37.8,30.08,SSE,153,8.0,17.0,33,0.00,,,0.00,364,Wunderground v.1.15,2013-03-27 22:53:00,
2013-03-27 17:54:00,68.0,37.8,30.08,SE,138,9.0,17.0,33,0.00,,,0.00,359,Wunderground v.1.15,2013-03-27 22:54:00,
2013-03-27 17:57:00,68.0,37.8,30.09,SE,143,9.0,17.0,33,0.00,,,0.00,345,Wunderground v.1.15,2013-03-27 22:57:00,
2013-03-27 17:59:00,68.1,37.9,30.09,SE,146,9.0,17.0,33,0.00,,,0.00,338,Wunderground v.1.15,2013-03-27 22:59:00,
2013-03-27 18:01:00,68.1,37.9,30.09,SSE,156,9.0,9.0,33,0.00,,,0.00,330,Wunderground v.1.15,2013-03-27 23:01:00,
2013-03-27 18:02:00,68.2,38.0,30.09,SW,223,9.0,11.0,33,0.00,,,0.00,323,Wunderground v.1.15,2013-03-27 23:02:00,
2013-03-27 18:05:00,68.1,37.9,30.09,South,188,8.0,11.0,33,0.00,,,0.00,311,Wunderground v.1.15,2013-03-27 23:05:00,
2013-03-27 18:07:00,68.1,37.9,30.09,SSE,147,8.0,13.0,33,0.00,,,0.00,308,Wunderground v.1.15,2013-03-27 23:07:00,
2013-03-27 18:09:00,68.0,37.8,30.09,ESE,107,8.0,13.0,33,0.00,,,0.00,299,Wunderground v.1.15,2013-03-27 23:09:00,
2013-03-27 18:11:00,68.0,37.8,30.09,SE,130,8.0,9.0,33,0.00,,,0.00,292,Wunderground v.1.15,2013-03-27 23:11:00,
2013-03-27 18:12:00,68.0,37.8,30.08,SSE,158,9.0,9.0,33,0.00,,,0.00,290,Wunderground v.1.15,2013-03-27 23:12:00,
2013-03-27 18:18:00,67.9,37.7,30.08,SSE,167,9.0,10.0,33,0.00,,,0.00,272,Wunderground v.1.15,2013-03-27 23:18:00,
2013-03-27 18:19:00,67.9,38.5,30.08,SE,144,9.0,12.0,34,0.00,,,0.00,262,Wunderground v.1.15,2013-03-27 23:19:00,
2013-03-27 18:20:00,67.8,38.4,30.08,SSE,158,9.0,13.0,34,0.00,,,0.00,258,Wunderground v.1.15,2013-03-27 23:20:00,
2013-03-27 18:22:00,67.8,38.4,30.08,South,174,9.0,14.0,34,0.00,,,0.00,253,Wunderground v.1.15,2013-03-27 23:22:00,
2013-03-27 18:24:00,67.8,38.4,30.08,SE,136,9.0,14.0,34,0.00,,,0.00,246,Wunderground v.1.15,2013-03-27 23:24:00,
2013-03-27 18:25:00,67.8,38.4,30.08,SSE,147,9.0,14.0,34,0.00,,,0.00,237,Wunderground v.1.15,2013-03-27 23:25:00,
2013-03-27 18:29:00,67.8,38.4,30.08,South,177,9.0,14.0,34,0.00,,,0.00,227,Wunderground v.1.15,2013-03-27 23:29:00,
2013-03-27 18:30:00,67.8,38.4,30.08,SE,140,9.0,14.0,34,0.00,,,0.00,220,Wunderground v.1.15,2013-03-27 23:30:00,
2013-03-27 18:31:00,67.8,38.4,30.08,SSE,160,9.0,9.0,34,0.00,,,0.00,216,Wunderground v.1.15,2013-03-27 23:31:00,
2013-03-27 18:32:00,67.8,38.4,30.08,SSE,159,9.0,9.0,34,0.00,,,0.00,213,Wunderground v.1.15,2013-03-27 23:32:00,
2013-03-27 18:35:00,67.8,38.4,30.07,SSE,157,9.0,11.0,34,0.00,,,0.00,200,Wunderground v.1.15,2013-03-27 23:35:00,
2013-03-27 18:37:00,67.8,38.4,30.07,SE,129,9.0,11.0,34,0.00,,,0.00,197,Wunderground v.1.15,2013-03-27 23:37:00,
2013-03-27 18:38:00,67.8,38.4,30.07,SSE,167,9.0,11.0,34,0.00,,,0.00,190,Wunderground v.1.15,2013-03-27 23:38:00,
2013-03-27 18:40:00,67.8,38.4,30.07,SW,217,9.0,11.0,34,0.00,,,0.00,179,Wunderground v.1.15,2013-03-27 23:40:00,
2013-03-27 18:43:00,67.9,38.5,30.07,South,178,8.0,10.0,34,0.00,,,0.00,171,Wunderground v.1.15,2013-03-27 23:43:00,
2013-03-27 18:45:00,67.9,38.5,30.07,West,264,8.0,12.0,34,0.00,,,0.00,158,Wunderground v.1.15,2013-03-27 23:45:00,
2013-03-27 18:46:00,67.9,38.5,30.07,South,171,7.0,12.0,34,0.00,,,0.00,158,Wunderground v.1.15,2013-03-27 23:46:00,
2013-03-27 18:50:00,67.9,38.5,30.07,SSE,159,6.0,12.0,34,0.00,,,0.00,142,Wunderground v.1.15,2013-03-27 23:50:00,
2013-03-27 18:52:00,67.9,38.5,30.08,SSE,163,7.0,8.0,34,0.00,,,0.00,135,Wunderground v.1.15,2013-03-27 23:52:00,
2013-03-27 18:53:00,67.8,38.4,30.08,SE,135,6.0,8.0,34,0.00,,,0.00,132,Wunderground v.1.15,2013-03-27 23:53:00,
2013-03-27 18:56:00,67.7,38.3,30.07,SSE,154,6.0,15.0,34,0.00,,,0.00,120,Wunderground v.1.15,2013-03-27 23:56:00,
2013-03-27 18:57:00,67.7,38.3,30.08,SSE,161,7.0,15.0,34,0.00,,,0.00,114,Wunderground v.1.15,2013-03-27 23:57:00,
2013-03-27 18:59:00,67.6,39.0,30.07,SSE,159,7.0,15.0,35,0.00,,,0.00,107,Wunderground v.1.15,2013-03-27 23:59:00,
2013-03-27 19:03:00,67.5,38.9,30.08,SSE,155,8.0,8.0,35,0.00,,,0.00,91,Wunderground v.1.15,2013-03-28 00:03:00,
2013-03-27 19:04:00,67.5,38.9,30.07,South,184,8.0,9.0,35,0.00,,,0.00,88,Wunderground v.1.15,2013-03-28 00:04:00,
2013-03-27 19:06:00,67.4,38.8,30.08,South,169,7.0,9.0,35,0.00,,,0.00,79,Wunderground v.1.15,2013-03-28 00:06:00,
2013-03-27 19:08:00,67.4,38.8,30.07,SSE,160,7.0,9.0,35,0.00,,,0.00,74,Wunderground v.1.15,2013-03-28 00:08:00,
2013-03-27 19:09:00,67.4,38.8,30.07,SSE,167,6.0,9.0,35,0.00,,,0.00,70,Wunderground v.1.15,2013-03-28 00:09:00,
2013-03-27 19:10:00,67.4,38.8,30.07,SE,144,6.0,6.0,35,0.00,,,0.00,65,Wunderground v.1.15,2013-03-28 00:10:00,
2013-03-27 19:13:00,67.3,38.7,30.07,SE,145,5.0,11.0,35,0.00,,,0.00,58,Wunderground v.1.15,2013-03-28 00:13:00,
2013-03-27 19:15:00,67.2,39.3,30.07,SSE,159,5.0,11.0,36,0.00,,,0.00,49,Wunderground v.1.15,2013-03-28 00:15:00,
2013-03-27 19:18:00,67.2,39.3,30.07,SSE,161,5.0,11.0,36,0.00,,,0.00,46,Wunderground v.1.15,2013-03-28 00:18:00,
2013-03-27 19:21:00,67.0,39.1,30.07,South,180,5.0,6.0,36,0.00,,,0.00,39,Wunderground v.1.15,2013-03-28 00:21:00,
2013-03-27 19:22:00,67.0,39.1,30.07,South,169,5.0,8.0,36,0.00,,,0.00,35,Wunderground v.1.15,2013-03-28 00:22:00,
2013-03-27 19:23:00,67.0,39.1,30.07,SSE,155,5.0,9.0,36,0.00,,,0.00,33,Wunderground v.1.15,2013-03-28 00:23:00,
2013-03-27 19:24:00,66.9,39.1,30.07,South,171,5.0,9.0,36,0.00,,,0.00,28,Wunderground v.1.15,2013-03-28 00:24:00,
2013-03-27 19:28:00,66.8,39.0,30.07,SW,221,6.0,9.0,36,0.00,,,0.00,25,Wunderground v.1.15,2013-03-28 00:28:00,
2013-03-27 19:29:00,66.7,38.9,30.07,South,188,6.0,9.0,36,0.00,,,0.00,23,Wunderground v.1.15,2013-03-28 00:29:00,
2013-03-27 19:31:00,66.7,38.9,30.07,South,187,6.0,6.0,36,0.00,,,0.00,18,Wunderground v.1.15,2013-03-28 00:31:00,
2013-03-27 19:35:00,66.5,39.4,30.07,SE,144,5.0,8.0,37,0.00,,,0.00,12,Wunderground v.1.15,2013-03-28 00:35:00,
2013-03-27 19:37:00,66.4,39.3,30.07,SSE,159,5.0,9.0,37,0.00,,,0.00,11,Wunderground v.1.15,2013-03-28 00:37:00,
2013-03-27 19:38:00,66.4,39.3,30.07,SSE,161,5.0,9.0,37,0.00,,,0.00,11,Wunderground v.1.15,2013-03-28 00:38:00,
2013-03-27 19:39:00,66.4,39.3,30.07,SSE,159,6.0,9.0,37,0.00,,,0.00,9,Wunderground v.1.15,2013-03-28 00:39:00,
2013-03-27 19:42:00,66.3,39.2,30.07,South,169,6.0,6.0,37,0.00,,,0.00,7,Wunderground v.1.15,2013-03-28 00:42:00,
2013-03-27 19:43:00,66.3,39.2,30.07,SSW,209,6.0,6.0,37,0.00,,,0.00,7,Wunderground v.1.15,2013-03-28 00:43:00,
2013-03-27 19:46:00,66.2,39.1,30.07,South,173,6.0,6.0,37,0.00,,,0.00,5,Wunderground v.1.15,2013-03-28 00:46:00,
2013-03-27 19:49:00,66.1,39.7,30.07,SSE,161,5.0,6.0,38,0.00,,,0.00,0,Wunderground v.1.15,2013-03-28 00:49:00,
2013-03-27 19:50:00,66.0,39.7,30.07,SSE,163,5.0,5.0,38,0.00,,,0.00,0,Wunderground v.1.15,2013-03-28 00:50:00,
2013-03-27 19:52:00,66.0,39.7,30.07,South,190,5.0,10.0,38,0.00,,,0.00,0,Wunderground v.1.15,2013-03-28 00:52:00,
2013-03-27 19:54:00,65.9,39.6,30.07,SSE,153,5.0,13.0,38,0.00,,,0.00,0,Wunderground v.1.15,2013-03-28 00:54:00,
2013-03-27 19:56:00,65.9,39.6,30.07,SSE,167,6.0,13.0,38,0.00,,,0.00,0,Wunderground v.1.15,2013-03-28 00:56:00,
2013-03-27 19:58:00,65.9,39.6,30.07,SSE,152,6.0,13.0,38,0.00,,,0.00,0,Wunderground v.1.15,2013-03-28 00:58:00,
2013-03-27 20:02:00,65.8,39.5,30.07,SSE,156,7.0,9.0,38,0.00,,,0.00,0,Wunderground v.1.15,2013-03-28 01:02:00,
2013-03-27 20:03:00,65.7,39.4,30.07,SW,219,7.0,9.0,38,0.00,,,0.00,0,Wunderground v.1.15,2013-03-28 01:03:00,
2013-03-27 20:04:00,65.7,39.4,30.07,SSE,165,7.0,9.0,38,0.00,,,0.00,0,Wunderground v.1.15,2013-03-28 01:04:00,
2013-03-27 20:05:00,65.7,39.4,30.07,SSE,157,7.0,9.0,38,0.00,,,0.00,0,Wunderground v.1.15,2013-03-28 01:05:00,
2013-03-27 20:09:00,65.6,40.0,30.08,South,174,6.0,9.0,39,0.00,,,0.00,0,Wunderground v.1.15,2013-03-28 01:09:00,
2013-03-27 20:10:00,65.6,39.3,30.08,SE,140,6.0,9.0,38,0.00,,,0.00,0,Wunderground v.1.15,2013-03-28 01:10:00,
2013-03-27 20:11:00,65.6,40.0,30.08,SSE,150,6.0,6.0,39,0.00,,,0.00,0,Wunderground v.1.15,2013-03-28 01:11:00,
2013-03-27 20:16:00,65.4,39.8,30.08,SSE,150,6.0,7.0,39,0.00,,,0.00,0,Wunderground v.1.15,2013-03-28 01:16:00,
2013-03-27 20:17:00,65.4,39.8,30.08,SSE,150,6.0,10.0,39,0.00,,,0.00,0,Wunderground v.1.15,2013-03-28 01:17:00,
2013-03-27 20:20:00,65.4,39.8,30.08,SSE,165,6.0,10.0,39,0.00,,,0.00,0,Wunderground v.1.15,2013-03-28 01:20:00,
2013-03-27 20:25:00,65.3,39.7,30.08,SE,146,7.0,9.0,39,0.00,,,0.00,0,Wunderground v.1.15,2013-03-28 01:25:00,
2013-03-27 20:26:00,65.3,39.7,30.08,SSE,154,7.0,9.0,39,0.00,,,0.00,0,Wunderground v.1.15,2013-03-28 01:26:00,
2013-03-27 20:27:00,65.2,39.6,30.08,SSE,153,7.0,9.0,39,0.00,,,0.00,0,Wunderground v.1.15,2013-03-28 01:27:00,
2013-03-27 20:29:00,65.1,39.5,30.08,SE,124,6.0,9.0,39,0.00,,,0.00,0,Wunderground v.1.15,2013-03-28 01:29:00,
2013-03-27 20:31:00,65.1,40.2,30.08,SSE,155,5.0,5.0,40,0.00,,,0.00,0,Wunderground v.1.15,2013-03-28 01:31:00,
2013-03-27 20:34:00,64.9,40.0,30.09,SE,145,5.0,6.0,40,0.00,,,0.00,0,Wunderground v.1.15,2013-03-28 01:34:00,
2013-03-27 20:35:00,64.9,40.0,30.09,SSE,150,5.0,6.0,40,0.00,,,0.00,0,Wunderground v.1.15,2013-03-28 01:35:00,
2013-03-27 20:37:00,64.8,39.9,30.09,SE,136,5.0,7.0,40,0.00,,,0.00,0,Wunderground v.1.15,2013-03-28 01:37:00,
2013-03-27 20:38:00,64.8,39.9,30.09,SSE,148,5.0,7.0,40,0.00,,,0.00,0,Wunderground v.1.15,2013-03-28 01:38:00,
2013-03-27 20:41:00,64.6,39.7,30.09,SSE,152,5.0,5.0,40,0.00,,,0.00,0,Wunderground v.1.15,2013-03-28 01:41:00,
2013-03-27 20:43:00,64.6,39.7,30.09,SE,144,5.0,5.0,40,0.00,,,0.00,0,Wunderground v.1.15,2013-03-28 01:43:00,
2013-03-27 20:44:00,64.5,39.6,30.09,SSE,147,5.0,7.0,40,0.00,,,0.00,0,Wunderground v.1.15,2013-03-28 01:44:00,
2013-03-27 20:45:00,64.5,39.6,30.09,SSE,150,5.0,7.0,40,0.00,,,0.00,0,Wunderground v.1.15,2013-03-28 01:45:00,
2013-03-27 20:49:00,64.3,39.4,30.09,SSE,159,5.0,7.0,40,0.00,,,0.00,0,Wunderground v.1.15,2013-03-28 01:49:00,
2013-03-27 20:50:00,64.3,39.4,30.09,SSE,154,5.0,7.0,40,0.00,,,0.00,0,Wunderground v.1.15,2013-03-28 01:50:00,
2013-03-27 20:53:00,64.2,40.0,30.10,SSE,157,5.0,6.0,41,0.00,,,0.00,0,Wunderground v.1.15,2013-03-28 01:53:00,
2013-03-27 20:55:00,64.1,39.9,30.10,SSE,150,6.0,9.0,41,0.00,,,0.00,0,Wunderground v.1.15,2013-03-28 01:55:00,
2013-03-27 20:58:00,64.1,39.9,30.10,SSE,153,6.0,9.0,41,0.00,,,0.00,0,Wunderground v.1.15,2013-03-28 01:58:00,
2013-03-27 20:59:00,64.1,39.9,30.10,SE,142,6.0,9.0,41,0.00,,,0.00,0,Wunderground v.1.15,2013-03-28 01:59:00,
2013-03-27 21:04:00,64.1,39.9,30.10,SSE,148,6.0,8.0,41,0.00,,,0.00,0,Wunderground v.1.15,2013-03-28 02:04:00,
2013-03-27 21:05:00,64.1,39.9,30.10,SE,137,6.0,8.0,41,0.00,,,0.00,0,Wunderground v.1.15,2013-03-28 02:05:00,
2013-03-27 21:06:00,64.0,39.8,30.10,SE,142,6.0,8.0,41,0.00,,,0.00,0,Wunderground v.1.15,2013-03-28 02:06:00,
2013-03-27 21:07:00,64.0,39.8,30.10,SSE,157,6.0,8.0,41,0.00,,,0.00,0,Wunderground v.1.15,2013-03-28 02:07:00,
2013-03-27 21:10:00,63.9,40.3,30.11,SE,144,6.0,6.0,42,0.00,,,0.00,0,Wunderground v.1.15,2013-03-28 02:10:00,
2013-03-27 21:13:00,63.9,40.3,30.11,SSE,155,5.0,6.0,42,0.00,,,0.00,0,Wunderground v.1.15,2013-03-28 02:13:00,
2013-03-27 21:16:00,63.8,40.3,30.11,SSE,163,5.0,6.0,42,0.00,,,0.00,0,Wunderground v.1.15,2013-03-28 02:16:00,
2013-03-27 21:19:00,63.6,40.1,30.11,SSE,157,5.0,7.0,42,0.00,,,0.00,0,Wunderground v.1.15,2013-03-28 02:19:00,
2013-03-27 21:20:00,63.6,40.1,30.11,SSE,149,5.0,6.0,42,0.00,,,0.00,0,Wunderground v.1.15,2013-03-28 02:20:00,
2013-03-27 21:23:00,63.6,40.7,30.11,SE,140,6.0,9.0,43,0.00,,,0.00,0,Wunderground v.1.15,2013-03-28 02:23:00,
2013-03-27 21:26:00,63.5,40.6,30.11,SSE,150,6.0,9.0,43,0.00,,,0.00,0,Wunderground v.1.15,2013-03-28 02:26:00,
2013-03-27 21:28:00,63.4,40.5,30.11,SE,145,6.0,9.0,43,0.00,,,0.00,0,Wunderground v.1.15,2013-03-28 02:28:00,
2013-03-27 21:31:00,63.4,40.5,30.11,SE,130,7.0,10.0,43,0.00,,,0.00,0,Wunderground v.1.15,2013-03-28 02:31:00,
2013-03-27 21:32:00,63.4,40.5,30.11,SSE,165,7.0,10.0,43,0.00,,,0.00,0,Wunderground v.1.15,2013-03-28 02:32:00,
2013-03-27 21:37:00,63.2,40.3,30.12,SSE,153,7.0,10.0,43,0.00,,,0.00,0,Wunderground v.1.15,2013-03-28 02:37:00,
2013-03-27 21:38:00,63.2,40.3,30.11,SSE,151,7.0,10.0,43,0.00,,,0.00,0,Wunderground v.1.15,2013-03-28 02:38:00,
2013-03-27 21:41:00,63.1,40.8,30.12,SE,139,6.0,7.0,44,0.00,,,0.00,0,Wunderground v.1.15,2013-03-28 02:41:00,
2013-03-27 21:42:00,63.0,40.7,30.12,SSE,148,6.0,7.0,44,0.00,,,0.00,0,Wunderground v.1.15,2013-03-28 02:42:00,
2013-03-27 21:44:00,63.0,40.7,30.12,SE,124,6.0,7.0,44,0.00,,,0.00,0,Wunderground v.1.15,2013-03-28 02:44:00,
2013-03-27 21:45:00,63.0,40.7,30.12,SE,134,6.0,8.0,44,0.00,,,0.00,0,Wunderground v.1.15,2013-03-28 02:45:00,
2013-03-27 21:47:00,63.0,40.7,30.12,SE,142,6.0,8.0,44,0.00,,,0.00,0,Wunderground v.1.15,2013-03-28 02:47:00,
2013-03-27 21:50:00,62.9,40.6,30.12,SE,142,6.0,9.0,44,0.00,,,0.00,0,Wunderground v.1.15,2013-03-28 02:50:00,
2013-03-27 21:53:00,62.9,40.6,30.12,SSE,159,5.0,9.0,44,0.00,,,0.00,0,Wunderground v.1.15,2013-03-28 02:53:00,
2013-03-27 21:55:00,62.8,40.5,30.12,SSE,159,5.0,9.0,44,0.00,,,0.00,0,Wunderground v.1.15,2013-03-28 02:55:00,
2013-03-27 21:58:00,62.7,41.0,30.12,SSE,155,5.0,9.0,45,0.00,,,0.00,0,Wunderground v.1.15,2013-03-28 02:58:00,
2013-03-27 21:59:00,62.7,41.0,30.12,SE,132,5.0,9.0,45,0.00,,,0.00,0,Wunderground v.1.15,2013-03-28 02:59:00,
2013-03-27 22:04:00,62.5,40.9,30.13,SSE,155,5.0,5.0,45,0.00,,,0.00,0,Wunderground v.1.15,2013-03-28 03:04:00,
2013-03-27 22:05:00,62.5,40.9,30.13,SE,141,5.0,5.0,45,0.00,,,0.00,0,Wunderground v.1.15,2013-03-28 03:05:00,
2013-03-27 22:09:00,62.5,40.9,30.13,SE,144,5.0,5.0,45,0.00,,,0.00,0,Wunderground v.1.15,2013-03-28 03:09:00,
2013-03-27 22:10:00,62.4,40.8,30.13,South,172,5.0,5.0,45,0.00,,,0.00,0,Wunderground v.1.15,2013-03-28 03:10:00,
2013-03-27 22:12:00,62.4,40.8,30.13,SSE,150,5.0,9.0,45,0.00,,,0.00,0,Wunderground v.1.15,2013-03-28 03:12:00,
2013-03-27 22:17:00,62.3,40.7,30.13,SSE,153,5.0,9.0,45,0.00,,,0.00,0,Wunderground v.1.15,2013-03-28 03:17:00,
2013-03-27 22:19:00,62.2,41.2,30.13,SE,139,5.0,9.0,46,0.00,,,0.00,0,Wunderground v.1.15,2013-03-28 03:19:00,
2013-03-27 22:20:00,62.1,41.1,30.13,SSE,165,5.0,9.0,46,0.00,,,0.00,0,Wunderground v.1.15,2013-03-28 03:20:00,
2013-03-27 22:23:00,62.0,41.0,30.13,South,170,4.0,5.0,46,0.00,,,0.00,0,Wunderground v.1.15,2013-03-28 03:23:00,
2013-03-27 22:24:00,62.0,41.0,30.13,SSE,161,4.0,5.0,46,0.00,,,0.00,0,Wunderground v.1.15,2013-03-28 03:24:00,
2013-03-27 22:26:00,61.8,40.8,30.12,SSE,161,4.0,7.0,46,0.00,,,0.00,0,Wunderground v.1.15,2013-03-28 03:26:00,
2013-03-27 22:29:00,61.7,40.7,30.13,SE,142,4.0,7.0,46,0.00,,,0.00,0,Wunderground v.1.15,2013-03-28 03:29:00,
2013-03-27 22:30:00,61.7,40.7,30.12,SSE,150,5.0,7.0,46,0.00,,,0.00,0,Wunderground v.1.15,2013-03-28 03:30:00,
2013-03-27 22:32:00,61.7,41.3,30.12,SSE,159,5.0,5.0,47,0.00,,,0.00,0,Wunderground v.1.15,2013-03-28 03:32:00,
2013-03-27 22:33:00,61.6,41.2,30.13,SSE,153,5.0,5.0,47,0.00,,,0.00,0,Wunderground v.1.15,2013-03-28 03:33:00,
2013-03-27 22:38:00,61.5,41.1,30.13,SE,146,4.0,7.0,47,0.00,,,0.00,0,Wunderground v.1.15,2013-03-28 03:38:00,
2013-03-27 22:39:00,61.5,41.1,30.13,SSE,154,4.0,7.0,47,0.00,,,0.00,0,Wunderground v.1.15,2013-03-28 03:39:00,
2013-03-27 22:41:00,61.4,41.0,30.13,SE,126,4.0,5.0,47,0.00,,,0.00,0,Wunderground v.1.15,2013-03-28 03:41:00,
2013-03-27 22:43:00,61.4,41.0,30.13,SE,142,4.0,7.0,47,0.00,,,0.00,0,Wunderground v.1.15,2013-03-28 03:43:00,
2013-03-27 22:45:00,61.4,41.0,30.13,SE,138,5.0,7.0,47,0.00,,,0.00,0,Wunderground v.1.15,2013-03-28 03:45:00,
2013-03-27 22:48:00,61.4,41.0,30.13,SSE,153,5.0,7.0,47,0.00,,,0.00,0,Wunderground v.1.15,2013-03-28 03:48:00,
2013-03-27 22:50:00,61.3,41.4,30.13,SSE,153,5.0,7.0,48,0.00,,,0.00,0,Wunderground v.1.15,2013-03-28 03:50:00,
2013-03-27 22:53:00,61.2,41.3,30.13,SSE,160,5.0,5.0,48,0.00,,,0.00,0,Wunderground v.1.15,2013-03-28 03:53:00,
2013-03-27 22:54:00,61.1,41.2,30.13,SSE,153,4.0,5.0,48,0.00,,,0.00,0,Wunderground v.1.15,2013-03-28 03:54:00,
2013-03-27 22:57:00,61.0,41.2,30.13,SE,146,4.0,9.0,48,0.00,,,0.00,0,Wunderground v.1.15,2013-03-28 03:57:00,
2013-03-27 22:58:00,61.0,41.2,30.13,SE,146,4.0,9.0,48,0.00,,,0.00,0,Wunderground v.1.15,2013-03-28 03:58:00,
2013-03-27 23:01:00,60.9,41.1,30.13,SSE,157,4.0,4.0,48,0.00,,,0.00,0,Wunderground v.1.15,2013-03-28 04:01:00,
2013-03-27 23:02:00,60.9,41.1,30.13,SSE,153,4.0,4.0,48,0.00,,,0.00,0,Wunderground v.1.15,2013-03-28 04:02:00,
2013-03-27 23:05:00,60.8,41.0,30.13,SSE,161,4.0,6.0,48,0.00,,,0.00,0,Wunderground v.1.15,2013-03-28 04:05:00,
2013-03-27 23:06:00,60.8,41.0,30.13,South,172,4.0,6.0,48,0.00,,,0.00,0,Wunderground v.1.15,2013-03-28 04:06:00,
2013-03-27 23:07:00,60.8,41.0,30.13,SSE,153,5.0,6.0,48,0.00,,,0.00,0,Wunderground v.1.15,2013-03-28 04:07:00,
2013-03-27 23:08:00,60.7,41.4,30.13,South,171,5.0,6.0,49,0.00,,,0.00,0,Wunderground v.1.15,2013-03-28 04:08:00,
2013-03-27 23:11:00,60.7,41.4,30.13,South,173,5.0,5.0,49,0.00,,,0.00,0,Wunderground v.1.15,2013-03-28 04:11:00,
2013-03-27 23:12:00,60.7,41.4,30.13,SSE,159,5.0,5.0,49,0.00,,,0.00,0,Wunderground v.1.15,2013-03-28 04:12:00,
2013-03-27 23:14:00,60.6,41.3,30.13,SSE,168,4.0,6.0,49,0.00,,,0.00,0,Wunderground v.1.15,2013-03-28 04:14:00,
2013-03-27 23:17:00,60.6,41.3,30.13,SE,139,4.0,7.0,49,0.00,,,0.00,0,Wunderground v.1.15,2013-03-28 04:17:00,
2013-03-27 23:18:00,60.6,41.3,30.14,SE,144,4.0,7.0,49,0.00,,,0.00,0,Wunderground v.1.15,2013-03-28 04:18:00,
2013-03-27 23:19:00,60.6,41.3,30.14,SSE,149,4.0,7.0,49,0.00,,,0.00,0,Wunderground v.1.15,2013-03-28 04:19:00,
2013-03-27 23:23:00,60.6,41.3,30.14,SSE,153,4.0,4.0,49,0.00,,,0.00,0,Wunderground v.1.15,2013-03-28 04:23:00,
2013-03-27 23:24:00,60.5,41.2,30.14,SE,146,4.0,4.0,49,0.00,,,0.00,0,Wunderground v.1.15,2013-03-28 04:24:00,
2013-03-27 23:25:00,60.6,41.3,30.14,SSE,163,4.0,4.0,49,0.00,,,0.00,0,Wunderground v.1.15,2013-03-28 04:25:00,
2013-03-27 23:29:00,60.5,41.2,30.14,SSE,161,4.0,6.0,49,0.00,,,0.00,0,Wunderground v.1.15,2013-03-28 04:29:00,
2013-03-27 23:30:00,60.5,41.2,30.14,SSE,159,3.0,6.0,49,0.00,,,0.00,0,Wunderground v.1.15,2013-03-28 04:30:00,
2013-03-27 23:32:00,60.4,41.1,30.14,SSE,168,3.0,4.0,49,0.00,,,0.00,0,Wunderground v.1.15,2013-03-28 04:32:00,
2013-03-27 23:35:00,60.3,41.0,30.14,SSE,155,3.0,4.0,49,0.00,,,0.00,0,Wunderground v.1.15,2013-03-28 04:35:00,
2013-03-27 23:39:00,60.2,41.5,30.14,South,176,3.0,6.0,50,0.00,,,0.00,0,Wunderground v.1.15,2013-03-28 04:39:00,
2013-03-27 23:43:00,60.2,41.5,30.14,South,171,3.0,3.0,50,0.00,,,0.00,0,Wunderground v.1.15,2013-03-28 04:43:00,
2013-03-27 23:45:00,60.2,41.5,30.14,SSE,167,3.0,6.0,50,0.00,,,0.00,0,Wunderground v.1.15,2013-03-28 04:45:00,
2013-03-27 23:46:00,60.2,41.5,30.14,SSE,164,3.0,6.0,50,0.00,,,0.00,0,Wunderground v.1.15,2013-03-28 04:46:00,
2013-03-27 23:48:00,60.2,41.5,30.14,SSE,164,3.0,6.0,50,0.00,,,0.00,0,Wunderground v.1.15,2013-03-28 04:48:00,
2013-03-27 23:50:00,60.1,41.4,30.14,SSE,165,3.0,6.0,50,0.00,,,0.00,0,Wunderground v.1.15,2013-03-28 04:50:00,
2013-03-27 23:51:00,60.1,41.4,30.14,SSE,164,3.0,3.0,50,0.00,,,0.00,0,Wunderground v.1.15,2013-03-28 04:51:00,
2013-03-27 23:52:00,60.1,41.4,30.14,SE,146,3.0,4.0,50,0.00,,,0.00,0,Wunderground v.1.15,2013-03-28 04:52:00,
2013-03-27 23:55:00,60.1,41.4,30.14,SSE,158,4.0,4.0,50,0.00,,,0.00,0,Wunderground v.1.15,2013-03-28 04:55:00,
2013-03-27 23:57:00,60.1,41.4,30.14,South,174,3.0,4.0,50,0.00,,,0.00,0,Wunderground v.1.15,2013-03-28 04:57:00,
2013-03-27 23:58:00,60.1,41.4,30.14,South,173,3.0,4.0,50,0.00,,,0.00,0,Wunderground v.1.15,2013-03-28 04:58:00,